Time,TemperatureF,DewpointF,PressureIn,WindDirection,WindDirectionDegrees,WindSpeedMPH,WindSpeedGustMPH,Humidity,HourlyPrecipIn,Conditions,Clouds,dailyrainin,SoftwareType,DateUTC
2013-02-08 00:02:00,42.5,16.6,29.72,West,270,1.8,3.4,35,0.00,,,0.00,WUHU216HW,2013-02-08 07:02:00,
2013-02-08 00:03:00,42.5,16.6,29.72,West,270,3.4,3.4,35,0.00,,,0.00,WUHU216HW,2013-02-08 07:03:00,
2013-02-08 00:07:00,42.3,17.0,29.72,WNW,293,2.9,3.4,36,0.00,,,0.00,WUHU216HW,2013-02-08 07:07:00,
2013-02-08 00:08:00,42.3,16.4,29.73,West,270,3.4,3.4,35,0.00,,,0.00,WUHU216HW,2013-02-08 07:08:00,
2013-02-08 00:09:00,42.3,16.4,29.72,WNW,293,3.4,3.4,35,0.00,,,0.00,WUHU216HW,2013-02-08 07:09:00,
2013-02-08 00:12:00,42.1,16.9,29.73,West,270,2.9,4.0,36,0.00,,,0.00,WUHU216HW,2013-02-08 07:12:00,
2013-02-08 00:13:00,42.1,16.9,29.73,WNW,293,2.0,4.0,36,0.00,,,0.00,WUHU216HW,2013-02-08 07:13:00,
2013-02-08 00:14:00,42.1,16.9,29.73,WNW,293,2.5,4.0,36,0.00,,,0.00,WUHU216HW,2013-02-08 07:14:00,
2013-02-08 00:17:00,42.1,16.9,29.73,WNW,293,2.0,4.0,36,0.00,,,0.00,WUHU216HW,2013-02-08 07:17:00,
2013-02-08 00:18:00,42.1,16.9,29.73,WNW,293,3.1,4.0,36,0.00,,,0.00,WUHU216HW,2013-02-08 07:18:00,
2013-02-08 00:19:00,42.1,16.9,29.72,WNW,293,2.5,4.0,36,0.00,,,0.00,WUHU216HW,2013-02-08 07:19:00,
2013-02-08 00:23:00,42.1,17.6,29.72,NNE,23,4.0,5.4,37,0.00,,,0.00,WUHU216HW,2013-02-08 07:23:00,
2013-02-08 00:25:00,41.9,17.4,29.72,WSW,248,0.4,5.4,37,0.00,,,0.00,WUHU216HW,2013-02-08 07:25:00,
2013-02-08 00:28:00,41.8,16.6,29.72,North,0,1.8,5.4,36,0.00,,,0.00,WUHU216HW,2013-02-08 07:28:00,
2013-02-08 00:30:00,41.4,16.3,29.72,NE,45,1.8,5.4,36,0.00,,,0.00,WUHU216HW,2013-02-08 07:30:00,
2013-02-08 00:33:00,41.2,16.7,29.73,NNE,23,2.5,2.5,37,0.00,,,0.00,WUHU216HW,2013-02-08 07:33:00,
2013-02-08 00:35:00,41.0,16.6,29.73,NNE,23,1.1,2.5,37,0.00,,,0.00,WUHU216HW,2013-02-08 07:35:00,
2013-02-08 00:38:00,40.9,16.5,29.72,NNE,23,2.0,2.5,37,0.00,,,0.00,WUHU216HW,2013-02-08 07:38:00,
2013-02-08 00:39:00,40.9,16.5,29.72,NNE,23,2.0,2.5,37,0.00,,,0.00,WUHU216HW,2013-02-08 07:39:00,
2013-02-08 00:40:00,40.7,16.3,29.72,NNE,23,0.9,2.5,37,0.00,,,0.00,WUHU216HW,2013-02-08 07:40:00,
2013-02-08 00:43:00,40.7,16.3,29.73,North,0,1.3,2.9,37,0.00,,,0.00,WUHU216HW,2013-02-08 07:43:00,
2013-02-08 00:44:00,40.7,16.3,29.73,North,0,1.3,2.9,37,0.00,,,0.00,WUHU216HW,2013-02-08 07:44:00,
2013-02-08 00:45:00,40.7,16.3,29.72,North,0,0.7,2.9,37,0.00,,,0.00,WUHU216HW,2013-02-08 07:45:00,
2013-02-08 00:48:00,40.7,16.3,29.72,North,0,0.2,2.9,37,0.00,,,0.00,WUHU216HW,2013-02-08 07:48:00,
2013-02-08 00:49:00,40.7,16.3,29.72,North,0,0.2,2.9,37,0.00,,,0.00,WUHU216HW,2013-02-08 07:49:00,
2013-02-08 00:50:00,40.7,16.3,29.72,North,0,1.1,2.9,37,0.00,,,0.00,WUHU216HW,2013-02-08 07:50:00,
2013-02-08 00:53:00,40.9,16.5,29.72,NNE,23,1.1,1.1,37,0.00,,,0.00,WUHU216HW,2013-02-08 07:53:00,
2013-02-08 00:54:00,40.9,16.5,29.72,NNE,23,1.1,1.1,37,0.00,,,0.00,WUHU216HW,2013-02-08 07:54:00,
2013-02-08 00:55:00,40.9,16.5,29.72,NNE,23,1.3,1.3,37,0.00,,,0.00,WUHU216HW,2013-02-08 07:55:00,
2013-02-08 00:58:00,40.9,16.5,29.72,North,0,0.2,2.0,37,0.00,,,0.00,WUHU216HW,2013-02-08 07:58:00,
2013-02-08 00:59:00,40.9,16.5,29.72,North,0,0.2,2.0,37,0.00,,,0.00,WUHU216HW,2013-02-08 07:59:00,
2013-02-08 01:01:00,40.9,16.5,29.72,NNW,338,0.4,2.0,37,0.00,,,0.00,WUHU216HW,2013-02-08 08:01:00,
2013-02-08 01:04:00,40.9,16.5,29.72,NW,315,1.3,2.0,37,0.00,,,0.00,WUHU216HW,2013-02-08 08:04:00,
2013-02-08 01:06:00,40.9,16.5,29.72,West,270,2.5,2.5,37,0.00,,,0.00,WUHU216HW,2013-02-08 08:06:00,
2013-02-08 01:09:00,40.9,16.5,29.72,WNW,293,2.0,2.5,37,0.00,,,0.00,WUHU216HW,2013-02-08 08:09:00,
2013-02-08 01:10:00,40.9,16.5,29.72,WNW,293,2.0,2.5,37,0.00,,,0.00,WUHU216HW,2013-02-08 08:10:00,
2013-02-08 01:11:00,40.9,16.5,29.72,West,270,1.3,2.7,37,0.00,,,0.00,WUHU216HW,2013-02-08 08:11:00,
2013-02-08 01:14:00,40.9,16.5,29.72,NNW,338,0.0,2.7,37,0.00,,,0.00,WUHU216HW,2013-02-08 08:14:00,
2013-02-08 01:15:00,40.9,16.5,29.72,NNW,338,0.0,2.7,37,0.00,,,0.00,WUHU216HW,2013-02-08 08:15:00,
2013-02-08 01:16:00,40.7,16.3,29.72,WNW,293,0.7,2.7,37,0.00,,,0.00,WUHU216HW,2013-02-08 08:16:00,
2013-02-08 01:19:00,40.7,16.3,29.72,West,270,0.9,2.7,37,0.00,,,0.00,WUHU216HW,2013-02-08 08:19:00,
2013-02-08 01:20:00,40.7,16.3,29.72,West,270,0.9,2.7,37,0.00,,,0.00,WUHU216HW,2013-02-08 08:20:00,
2013-02-08 01:21:00,40.7,16.3,29.72,West,270,0.4,2.2,37,0.00,,,0.00,WUHU216HW,2013-02-08 08:21:00,
2013-02-08 01:24:00,40.7,16.3,29.72,NNW,338,1.8,1.8,37,0.00,,,0.00,WUHU216HW,2013-02-08 08:24:00,
2013-02-08 01:25:00,40.7,16.3,29.72,NNW,338,1.8,1.8,37,0.00,,,0.00,WUHU216HW,2013-02-08 08:25:00,
2013-02-08 01:26:00,40.7,16.9,29.72,NNW,338,0.4,1.8,38,0.00,,,0.00,WUHU216HW,2013-02-08 08:26:00,
2013-02-08 01:29:00,40.5,16.7,29.72,North,0,3.4,3.4,38,0.00,,,0.00,WUHU216HW,2013-02-08 08:29:00,
2013-02-08 01:30:00,40.5,16.7,29.72,North,0,3.4,3.4,38,0.00,,,0.00,WUHU216HW,2013-02-08 08:30:00,
2013-02-08 01:31:00,40.3,16.6,29.72,North,0,1.1,3.4,38,0.00,,,0.00,WUHU216HW,2013-02-08 08:31:00,
2013-02-08 01:34:00,40.5,17.4,29.72,NNW,338,1.3,3.4,39,0.00,,,0.00,WUHU216HW,2013-02-08 08:34:00,
2013-02-08 01:35:00,40.5,17.4,29.72,NNW,338,1.3,3.4,39,0.00,,,0.00,WUHU216HW,2013-02-08 08:35:00,
2013-02-08 01:36:00,40.5,18.1,29.72,NNW,338,2.0,3.4,40,0.00,,,0.00,WUHU216HW,2013-02-08 08:36:00,
2013-02-08 01:39:00,40.5,18.1,29.72,North,0,1.1,3.1,40,0.00,,,0.00,WUHU216HW,2013-02-08 08:39:00,
2013-02-08 01:40:00,40.5,18.1,29.72,North,0,1.1,3.1,40,0.00,,,0.00,WUHU216HW,2013-02-08 08:40:00,
2013-02-08 01:41:00,40.5,18.1,29.72,NNW,338,1.1,3.1,40,0.00,,,0.00,WUHU216HW,2013-02-08 08:41:00,
2013-02-08 01:44:00,40.5,18.1,29.72,NNW,338,1.1,2.7,40,0.00,,,0.00,WUHU216HW,2013-02-08 08:44:00,
2013-02-08 01:45:00,40.5,18.5,29.72,NW,315,1.1,2.7,41,0.00,,,0.00,WUHU216HW,2013-02-08 08:45:00,
2013-02-08 01:46:00,40.5,18.5,29.72,NW,315,1.1,2.7,41,0.00,,,0.00,WUHU216HW,2013-02-08 08:46:00,
2013-02-08 01:49:00,40.3,18.5,29.72,West,270,2.2,2.7,41,0.00,,,0.00,WUHU216HW,2013-02-08 08:49:00,
2013-02-08 01:51:00,40.3,18.5,29.72,NW,315,1.8,2.7,41,0.00,,,0.00,WUHU216HW,2013-02-08 08:51:00,
2013-02-08 01:54:00,40.3,18.5,29.71,NNW,338,0.4,2.5,41,0.00,,,0.00,WUHU216HW,2013-02-08 08:54:00,
2013-02-08 01:56:00,40.3,18.5,29.72,NW,315,1.6,2.5,41,0.00,,,0.00,WUHU216HW,2013-02-08 08:56:00,
2013-02-08 02:00:00,40.3,18.5,29.72,WNW,293,0.0,2.2,41,0.00,,,0.00,WUHU216HW,2013-02-08 09:00:00,
2013-02-08 02:01:00,40.3,18.5,29.72,NW,315,0.0,2.2,41,0.00,,,0.00,WUHU216HW,2013-02-08 09:01:00,
2013-02-08 02:05:00,40.3,18.5,29.72,NNW,338,0.7,2.2,41,0.00,,,0.00,WUHU216HW,2013-02-08 09:05:00,
2013-02-08 02:06:00,40.3,18.5,29.72,NW,315,0.4,2.2,41,0.00,,,0.00,WUHU216HW,2013-02-08 09:06:00,
2013-02-08 02:10:00,40.3,18.5,29.71,North,0,1.1,1.6,41,0.00,,,0.00,WUHU216HW,2013-02-08 09:10:00,
2013-02-08 02:11:00,40.5,18.5,29.71,North,0,2.5,2.5,41,0.00,,,0.00,WUHU216HW,2013-02-08 09:11:00,
2013-02-08 02:15:00,40.5,19.1,29.71,NNW,338,0.9,2.5,42,0.00,,,0.00,WUHU216HW,2013-02-08 09:15:00,
2013-02-08 02:16:00,40.5,19.1,29.71,NNW,338,0.7,2.5,42,0.00,,,0.00,WUHU216HW,2013-02-08 09:16:00,
2013-02-08 02:21:00,40.7,18.7,29.72,NW,315,1.8,2.5,41,0.00,,,0.00,WUHU216HW,2013-02-08 09:21:00,
2013-02-08 02:22:00,40.7,18.7,29.72,NW,315,1.8,2.5,41,0.00,,,0.00,WUHU216HW,2013-02-08 09:22:00,
2013-02-08 02:26:00,40.7,19.3,29.72,NNW,338,0.9,2.5,42,0.00,,,0.00,WUHU216HW,2013-02-08 09:26:00,
2013-02-08 02:27:00,40.7,19.3,29.72,NNW,338,0.9,2.5,42,0.00,,,0.00,WUHU216HW,2013-02-08 09:27:00,
2013-02-08 02:31:00,40.7,19.3,29.71,North,0,1.8,3.4,42,0.00,,,0.00,WUHU216HW,2013-02-08 09:31:00,
2013-02-08 02:32:00,40.7,19.3,29.71,North,0,1.8,3.4,42,0.00,,,0.00,WUHU216HW,2013-02-08 09:32:00,
2013-02-08 02:36:00,40.5,19.6,29.71,North,0,1.1,3.4,43,0.00,,,0.00,WUHU216HW,2013-02-08 09:36:00,
2013-02-08 02:37:00,40.5,19.6,29.71,North,0,1.1,3.4,43,0.00,,,0.00,WUHU216HW,2013-02-08 09:37:00,
2013-02-08 02:41:00,40.5,19.1,29.70,North,0,1.1,2.5,42,0.00,,,0.00,WUHU216HW,2013-02-08 09:41:00,
2013-02-08 02:42:00,40.5,19.1,29.70,North,0,1.1,2.5,42,0.00,,,0.00,WUHU216HW,2013-02-08 09:42:00,
2013-02-08 02:46:00,40.7,19.8,29.70,North,0,2.5,3.4,43,0.00,,,0.00,WUHU216HW,2013-02-08 09:46:00,
2013-02-08 02:47:00,40.7,19.8,29.70,North,0,2.5,3.4,43,0.00,,,0.00,WUHU216HW,2013-02-08 09:47:00,
2013-02-08 02:51:00,40.5,19.6,29.70,NNW,338,1.6,3.4,43,0.00,,,0.00,WUHU216HW,2013-02-08 09:51:00,
2013-02-08 02:52:00,40.5,19.6,29.70,NNW,338,1.6,3.4,43,0.00,,,0.00,WUHU216HW,2013-02-08 09:52:00,
2013-02-08 02:57:00,40.3,19.4,29.70,NNW,338,1.8,3.6,43,0.00,,,0.00,WUHU216HW,2013-02-08 09:57:00,
2013-02-08 02:58:00,40.5,19.6,29.70,NNW,338,1.1,3.6,43,0.00,,,0.00,WUHU216HW,2013-02-08 09:58:00,
2013-02-08 03:02:00,40.3,19.4,29.71,North,0,1.6,3.6,43,0.00,,,0.00,WUHU216HW,2013-02-08 10:02:00,
2013-02-08 03:03:00,40.3,19.4,29.71,NNW,338,2.0,3.1,43,0.00,,,0.00,WUHU216HW,2013-02-08 10:03:00,
2013-02-08 03:07:00,40.3,19.4,29.70,NNW,338,1.3,2.9,43,0.00,,,0.00,WUHU216HW,2013-02-08 10:07:00,
2013-02-08 03:08:00,40.3,19.4,29.70,NNW,338,1.3,2.9,43,0.00,,,0.00,WUHU216HW,2013-02-08 10:08:00,
2013-02-08 03:12:00,40.3,19.4,29.71,NNW,338,1.1,2.9,43,0.00,,,0.00,WUHU216HW,2013-02-08 10:12:00,
2013-02-08 03:13:00,40.3,19.4,29.71,NNW,338,1.1,2.9,43,0.00,,,0.00,WUHU216HW,2013-02-08 10:13:00,
2013-02-08 03:17:00,40.1,19.3,29.70,NNW,338,0.9,2.5,43,0.00,,,0.00,WUHU216HW,2013-02-08 10:17:00,
2013-02-08 03:18:00,40.1,19.3,29.71,NNW,338,0.7,2.5,43,0.00,,,0.00,WUHU216HW,2013-02-08 10:18:00,
2013-02-08 03:22:00,40.1,19.3,29.71,North,0,2.7,3.1,43,0.00,,,0.00,WUHU216HW,2013-02-08 10:22:00,
2013-02-08 03:23:00,40.1,19.3,29.71,North,0,2.7,3.1,43,0.00,,,0.00,WUHU216HW,2013-02-08 10:23:00,
2013-02-08 03:27:00,40.1,19.3,29.70,NNW,338,1.8,3.1,43,0.00,,,0.00,WUHU216HW,2013-02-08 10:27:00,
2013-02-08 03:28:00,40.1,19.3,29.70,NNW,338,1.8,3.1,43,0.00,,,0.00,WUHU216HW,2013-02-08 10:28:00,
2013-02-08 03:32:00,40.1,19.3,29.70,NNW,338,0.4,4.9,43,0.00,,,0.00,WUHU216HW,2013-02-08 10:32:00,
2013-02-08 03:33:00,40.1,19.3,29.70,NNW,338,0.4,4.9,43,0.00,,,0.00,WUHU216HW,2013-02-08 10:33:00,
2013-02-08 03:34:00,40.1,19.3,29.70,NNW,338,1.6,4.9,43,0.00,,,0.00,WUHU216HW,2013-02-08 10:34:00,
2013-02-08 03:37:00,40.1,19.3,29.70,NNW,338,1.8,4.9,43,0.00,,,0.00,WUHU216HW,2013-02-08 10:37:00,
2013-02-08 03:38:00,40.1,19.3,29.70,NNW,338,1.8,4.9,43,0.00,,,0.00,WUHU216HW,2013-02-08 10:38:00,
2013-02-08 03:39:00,40.1,19.3,29.70,NNW,338,0.9,4.9,43,0.00,,,0.00,WUHU216HW,2013-02-08 10:39:00,
2013-02-08 03:43:00,40.0,19.2,29.70,North,0,1.1,1.8,43,0.00,,,0.00,WUHU216HW,2013-02-08 10:43:00,
2013-02-08 03:44:00,40.0,19.2,29.70,North,0,0.7,1.8,43,0.00,,,0.00,WUHU216HW,2013-02-08 10:44:00,
2013-02-08 03:48:00,40.0,19.2,29.70,NNW,338,1.1,2.5,43,0.00,,,0.00,WUHU216HW,2013-02-08 10:48:00,
2013-02-08 03:49:00,40.0,19.2,29.70,NNW,338,0.9,2.5,43,0.00,,,0.00,WUHU216HW,2013-02-08 10:49:00,
2013-02-08 03:53:00,40.0,19.2,29.70,NW,315,0.9,2.5,43,0.00,,,0.00,WUHU216HW,2013-02-08 10:53:00,
2013-02-08 03:54:00,40.0,19.2,29.70,NNW,338,2.2,2.5,43,0.00,,,0.00,WUHU216HW,2013-02-08 10:54:00,
2013-02-08 03:58:00,40.0,19.2,29.70,North,0,1.1,2.9,43,0.00,,,0.00,WUHU216HW,2013-02-08 10:58:00,
2013-02-08 03:59:00,40.0,19.2,29.70,North,0,0.7,2.9,43,0.00,,,0.00,WUHU216HW,2013-02-08 10:59:00,
2013-02-08 04:03:00,39.8,19.0,29.70,WNW,293,1.1,2.9,43,0.00,,,0.00,WUHU216HW,2013-02-08 11:03:00,
2013-02-08 04:04:00,40.0,19.2,29.70,NNW,338,1.6,2.9,43,0.00,,,0.00,WUHU216HW,2013-02-08 11:04:00,
2013-02-08 04:08:00,40.0,19.2,29.70,NNW,338,1.6,1.6,43,0.00,,,0.00,WUHU216HW,2013-02-08 11:08:00,
2013-02-08 04:09:00,40.0,18.6,29.70,NW,315,0.9,1.6,42,0.00,,,0.00,WUHU216HW,2013-02-08 11:09:00,
2013-02-08 04:13:00,40.0,18.6,29.70,NNW,338,0.4,1.6,42,0.00,,,0.00,WUHU216HW,2013-02-08 11:13:00,
2013-02-08 04:14:00,40.0,18.6,29.70,NNW,338,1.8,1.8,42,0.00,,,0.00,WUHU216HW,2013-02-08 11:14:00,
2013-02-08 04:15:00,40.0,18.6,29.70,NNW,338,1.8,1.8,42,0.00,,,0.00,WUHU216HW,2013-02-08 11:15:00,
2013-02-08 04:18:00,39.8,19.0,29.70,NNW,338,0.4,3.1,43,0.00,,,0.00,WUHU216HW,2013-02-08 11:18:00,
2013-02-08 04:19:00,39.8,19.0,29.70,NNW,338,1.1,3.1,43,0.00,,,0.00,WUHU216HW,2013-02-08 11:19:00,
2013-02-08 04:20:00,39.8,19.0,29.70,NNW,338,1.1,3.1,43,0.00,,,0.00,WUHU216HW,2013-02-08 11:20:00,
2013-02-08 04:23:00,39.6,18.8,29.70,North,0,0.7,3.1,43,0.00,,,0.00,WUHU216HW,2013-02-08 11:23:00,
2013-02-08 04:24:00,39.6,18.8,29.70,North,0,0.7,3.1,43,0.00,,,0.00,WUHU216HW,2013-02-08 11:24:00,
2013-02-08 04:25:00,39.6,18.8,29.70,NNE,23,1.1,3.1,43,0.00,,,0.00,WUHU216HW,2013-02-08 11:25:00,
2013-02-08 04:28:00,39.6,18.8,29.69,North,0,1.3,1.3,43,0.00,,,0.00,WUHU216HW,2013-02-08 11:28:00,
2013-02-08 04:29:00,39.6,18.8,29.69,North,0,1.3,1.3,43,0.00,,,0.00,WUHU216HW,2013-02-08 11:29:00,
2013-02-08 04:30:00,39.6,18.8,29.69,West,270,0.9,1.3,43,0.00,,,0.00,WUHU216HW,2013-02-08 11:30:00,
2013-02-08 04:34:00,39.6,18.8,29.69,NW,315,1.1,1.3,43,0.00,,,0.00,WUHU216HW,2013-02-08 11:34:00,
2013-02-08 04:35:00,39.6,18.8,29.69,North,0,1.8,1.8,43,0.00,,,0.00,WUHU216HW,2013-02-08 11:35:00,
2013-02-08 04:39:00,39.6,18.8,29.69,NNW,338,1.3,2.0,43,0.00,,,0.00,WUHU216HW,2013-02-08 11:39:00,
2013-02-08 04:40:00,39.6,18.8,29.69,NNW,338,1.3,2.0,43,0.00,,,0.00,WUHU216HW,2013-02-08 11:40:00,
2013-02-08 04:44:00,39.6,18.8,29.69,NNW,338,1.3,2.0,43,0.00,,,0.00,WUHU216HW,2013-02-08 11:44:00,
2013-02-08 04:45:00,39.6,18.8,29.69,NNW,338,0.7,2.0,43,0.00,,,0.00,WUHU216HW,2013-02-08 11:45:00,
2013-02-08 04:49:00,39.6,18.8,29.69,North,0,1.1,1.8,43,0.00,,,0.00,WUHU216HW,2013-02-08 11:49:00,
2013-02-08 04:51:00,39.6,18.8,29.69,NNW,338,1.3,1.8,43,0.00,,,0.00,WUHU216HW,2013-02-08 11:51:00,
2013-02-08 04:54:00,39.4,18.6,29.69,NNW,338,4.0,4.0,43,0.00,,,0.00,WUHU216HW,2013-02-08 11:54:00,
2013-02-08 04:55:00,39.4,18.6,29.69,North,0,2.0,4.0,43,0.00,,,0.00,WUHU216HW,2013-02-08 11:55:00,
2013-02-08 04:56:00,39.4,19.2,29.69,North,0,2.0,4.0,44,0.00,,,0.00,WUHU216HW,2013-02-08 11:56:00,
2013-02-08 04:59:00,39.2,19.0,29.69,NNE,23,6.9,6.9,44,0.00,,,0.00,WUHU216HW,2013-02-08 11:59:00,
2013-02-08 05:00:00,39.2,19.0,29.69,NNW,338,4.0,6.9,44,0.00,,,0.00,WUHU216HW,2013-02-08 12:00:00,
2013-02-08 05:01:00,39.2,19.0,29.70,North,0,3.8,6.9,44,0.00,,,0.00,WUHU216HW,2013-02-08 12:01:00,
2013-02-08 05:04:00,39.2,19.0,29.69,North,0,0.9,6.9,44,0.00,,,0.00,WUHU216HW,2013-02-08 12:04:00,
2013-02-08 05:05:00,39.2,19.0,29.69,North,0,0.9,6.9,44,0.00,,,0.00,WUHU216HW,2013-02-08 12:05:00,
2013-02-08 05:06:00,39.2,19.0,29.69,North,0,0.4,6.9,44,0.00,,,0.00,WUHU216HW,2013-02-08 12:06:00,
2013-02-08 05:09:00,39.2,19.0,29.69,North,0,0.2,4.5,44,0.00,,,0.00,WUHU216HW,2013-02-08 12:09:00,
2013-02-08 05:10:00,39.2,19.0,29.69,North,0,0.2,3.8,44,0.00,,,0.00,WUHU216HW,2013-02-08 12:10:00,
2013-02-08 05:11:00,39.2,19.0,29.69,North,0,0.0,2.0,44,0.00,,,0.00,WUHU216HW,2013-02-08 12:11:00,
2013-02-08 05:14:00,39.2,19.0,29.69,NE,45,3.4,3.4,44,0.00,,,0.00,WUHU216HW,2013-02-08 12:14:00,
2013-02-08 05:15:00,39.2,19.0,29.69,North,0,6.9,6.9,44,0.00,,,0.00,WUHU216HW,2013-02-08 12:15:00,
2013-02-08 05:16:00,39.2,19.0,29.69,NNW,338,0.9,6.9,44,0.00,,,0.00,WUHU216HW,2013-02-08 12:16:00,
2013-02-08 05:19:00,39.2,19.0,29.69,North,0,1.8,6.9,44,0.00,,,0.00,WUHU216HW,2013-02-08 12:19:00,
2013-02-08 05:20:00,39.2,19.0,29.69,NW,315,0.4,6.9,44,0.00,,,0.00,WUHU216HW,2013-02-08 12:20:00,
2013-02-08 05:21:00,39.2,19.0,29.69,NNE,23,1.8,6.9,44,0.00,,,0.00,WUHU216HW,2013-02-08 12:21:00,
2013-02-08 05:25:00,39.2,19.0,29.69,NNW,338,0.4,6.9,44,0.00,,,0.00,WUHU216HW,2013-02-08 12:25:00,
2013-02-08 05:26:00,39.2,19.0,29.69,NNW,338,0.0,1.8,44,0.00,,,0.00,WUHU216HW,2013-02-08 12:26:00,
2013-02-08 05:30:00,39.2,19.0,29.69,West,270,1.1,1.8,44,0.00,,,0.00,WUHU216HW,2013-02-08 12:30:00,
2013-02-08 05:31:00,39.2,19.0,29.69,WSW,248,1.8,1.8,44,0.00,,,0.00,WUHU216HW,2013-02-08 12:31:00,
2013-02-08 05:32:00,39.2,19.0,29.69,West,270,0.7,1.8,44,0.00,,,0.00,WUHU216HW,2013-02-08 12:32:00,
2013-02-08 05:35:00,39.2,19.0,29.69,NNW,338,0.9,1.8,44,0.00,,,0.00,WUHU216HW,2013-02-08 12:35:00,
2013-02-08 05:36:00,39.2,19.0,29.69,NNW,338,0.2,1.8,44,0.00,,,0.00,WUHU216HW,2013-02-08 12:36:00,
2013-02-08 05:37:00,39.2,19.0,29.69,NNW,338,0.2,1.8,44,0.00,,,0.00,WUHU216HW,2013-02-08 12:37:00,
2013-02-08 05:40:00,39.2,18.5,29.69,NNW,338,0.2,1.8,43,0.00,,,0.00,WUHU216HW,2013-02-08 12:40:00,
2013-02-08 05:41:00,39.2,19.0,29.69,NNW,338,0.2,1.8,44,0.00,,,0.00,WUHU216HW,2013-02-08 12:41:00,
2013-02-08 05:42:00,39.2,19.0,29.69,NNW,338,0.2,1.8,44,0.00,,,0.00,WUHU216HW,2013-02-08 12:42:00,
2013-02-08 05:45:00,39.2,18.5,29.69,SW,225,0.2,0.9,43,0.00,,,0.00,WUHU216HW,2013-02-08 12:45:00,
2013-02-08 05:46:00,39.2,19.0,29.69,SW,225,2.0,2.0,44,0.00,,,0.00,WUHU216HW,2013-02-08 12:46:00,
2013-02-08 05:47:00,39.2,19.0,29.69,WSW,248,3.1,3.1,44,0.00,,,0.00,WUHU216HW,2013-02-08 12:47:00,
2013-02-08 05:50:00,38.9,18.7,29.69,NW,315,1.8,3.1,44,0.00,,,0.00,WUHU216HW,2013-02-08 12:50:00,
2013-02-08 05:51:00,38.9,18.7,29.69,NW,315,1.8,3.1,44,0.00,,,0.00,WUHU216HW,2013-02-08 12:51:00,
2013-02-08 05:52:00,38.9,18.7,29.69,NNW,338,3.4,3.4,44,0.00,,,0.00,WUHU216HW,2013-02-08 12:52:00,
2013-02-08 05:55:00,38.9,19.2,29.68,North,0,3.6,5.4,45,0.00,,,0.00,WUHU216HW,2013-02-08 12:55:00,
2013-02-08 05:56:00,38.9,19.2,29.68,North,0,3.6,5.4,45,0.00,,,0.00,WUHU216HW,2013-02-08 12:56:00,
2013-02-08 05:57:00,38.9,19.2,29.68,NNE,23,1.8,5.4,45,0.00,,,0.00,WUHU216HW,2013-02-08 12:57:00,
2013-02-08 06:01:00,38.9,19.2,29.69,SSE,158,0.2,5.4,45,0.00,,,0.00,WUHU216HW,2013-02-08 13:01:00,
2013-02-08 06:02:00,38.9,19.2,29.69,North,0,0.9,5.4,45,0.00,,,0.00,WUHU216HW,2013-02-08 13:02:00,
2013-02-08 06:06:00,38.7,19.1,29.69,NNE,23,3.6,4.9,45,0.00,,,0.00,WUHU216HW,2013-02-08 13:06:00,
2013-02-08 06:07:00,38.9,19.2,29.69,North,0,2.0,4.9,45,0.00,,,0.00,WUHU216HW,2013-02-08 13:07:00,
2013-02-08 06:11:00,38.9,19.2,29.69,North,0,5.6,7.4,45,0.00,,,0.00,WUHU216HW,2013-02-08 13:11:00,
2013-02-08 06:12:00,38.7,19.1,29.69,NNE,23,2.5,7.4,45,0.00,,,0.00,WUHU216HW,2013-02-08 13:12:00,
2013-02-08 06:16:00,38.7,19.1,29.69,NNW,338,2.5,7.4,45,0.00,,,0.00,WUHU216HW,2013-02-08 13:16:00,
2013-02-08 06:18:00,38.7,19.1,29.69,NNW,338,4.3,7.4,45,0.00,,,0.00,WUHU216HW,2013-02-08 13:18:00,
2013-02-08 06:21:00,38.9,19.2,29.68,NNE,23,4.5,4.5,45,0.00,,,0.00,WUHU216HW,2013-02-08 13:21:00,
2013-02-08 06:23:00,38.9,19.2,29.69,NNE,23,2.0,4.5,45,0.00,,,0.00,WUHU216HW,2013-02-08 13:23:00,
2013-02-08 06:26:00,38.9,19.2,29.69,North,0,2.5,4.5,45,0.00,,,0.00,WUHU216HW,2013-02-08 13:26:00,
2013-02-08 06:27:00,38.9,19.2,29.69,North,0,2.5,4.5,45,0.00,,,0.00,WUHU216HW,2013-02-08 13:27:00,
2013-02-08 06:28:00,38.9,19.2,29.69,NNW,338,1.1,4.5,45,0.00,,,0.00,WUHU216HW,2013-02-08 13:28:00,
2013-02-08 06:31:00,38.9,19.2,29.68,NNE,23,4.7,4.9,45,0.00,,,0.00,WUHU216HW,2013-02-08 13:31:00,
2013-02-08 06:32:00,38.9,19.2,29.68,NNE,23,4.7,4.9,45,0.00,,,0.00,WUHU216HW,2013-02-08 13:32:00,
2013-02-08 06:33:00,38.9,19.2,29.68,NNE,23,2.5,4.9,45,0.00,,,0.00,WUHU216HW,2013-02-08 13:33:00,
2013-02-08 06:36:00,38.7,19.1,29.69,NNE,23,4.0,4.9,45,0.00,,,0.00,WUHU216HW,2013-02-08 13:36:00,
2013-02-08 06:37:00,38.7,19.1,29.69,NNE,23,4.0,4.9,45,0.00,,,0.00,WUHU216HW,2013-02-08 13:37:00,
2013-02-08 06:38:00,38.7,19.1,29.69,North,0,5.6,6.5,45,0.00,,,0.00,WUHU216HW,2013-02-08 13:38:00,
2013-02-08 06:41:00,38.7,19.1,29.69,NNE,23,3.1,6.5,45,0.00,,,0.00,WUHU216HW,2013-02-08 13:41:00,
2013-02-08 06:42:00,38.7,19.1,29.69,NNE,23,4.3,6.5,45,0.00,,,0.00,WUHU216HW,2013-02-08 13:42:00,
2013-02-08 06:43:00,38.7,19.1,29.69,NE,45,1.6,6.5,45,0.00,,,0.00,WUHU216HW,2013-02-08 13:43:00,
2013-02-08 06:46:00,38.7,19.1,29.69,NNE,23,3.4,6.5,45,0.00,,,0.00,WUHU216HW,2013-02-08 13:46:00,
2013-02-08 06:47:00,38.5,18.9,29.68,NNW,338,3.6,5.6,45,0.00,,,0.00,WUHU216HW,2013-02-08 13:47:00,
2013-02-08 06:48:00,38.5,18.9,29.68,NNW,338,3.6,5.6,45,0.00,,,0.00,WUHU216HW,2013-02-08 13:48:00,
2013-02-08 06:51:00,38.5,18.9,29.69,NNE,23,1.8,5.4,45,0.00,,,0.00,WUHU216HW,2013-02-08 13:51:00,
2013-02-08 06:52:00,38.5,18.9,29.69,North,0,1.8,5.4,45,0.00,,,0.00,WUHU216HW,2013-02-08 13:52:00,
2013-02-08 06:53:00,38.5,18.9,29.69,North,0,1.8,5.4,45,0.00,,,0.00,WUHU216HW,2013-02-08 13:53:00,
2013-02-08 06:57:00,38.5,18.9,29.69,NNE,23,5.1,5.4,45,0.00,,,0.00,WUHU216HW,2013-02-08 13:57:00,
2013-02-08 06:58:00,38.5,18.9,29.69,North,0,1.1,5.4,45,0.00,,,0.00,WUHU216HW,2013-02-08 13:58:00,
2013-02-08 07:02:00,38.5,18.9,29.69,North,0,0.7,5.1,45,0.00,,,0.00,WUHU216HW,2013-02-08 14:02:00,
2013-02-08 07:03:00,38.5,18.9,29.69,NW,315,1.1,5.1,45,0.00,,,0.00,WUHU216HW,2013-02-08 14:03:00,
2013-02-08 07:07:00,38.5,18.9,29.68,North,0,1.8,2.7,45,0.00,,,0.00,WUHU216HW,2013-02-08 14:07:00,
2013-02-08 07:08:00,38.5,18.9,29.68,North,0,3.1,3.1,45,0.00,,,0.00,WUHU216HW,2013-02-08 14:08:00,
2013-02-08 07:09:00,38.5,18.9,29.68,North,0,3.1,3.1,45,0.00,,,0.00,WUHU216HW,2013-02-08 14:09:00,
2013-02-08 07:12:00,38.5,18.9,29.68,North,0,3.4,5.4,45,0.00,,,0.00,WUHU216HW,2013-02-08 14:12:00,
2013-02-08 07:13:00,38.5,18.9,29.68,North,0,2.0,5.4,45,0.00,,,0.00,WUHU216HW,2013-02-08 14:13:00,
2013-02-08 07:18:00,38.5,18.9,29.69,North,0,1.3,5.4,45,0.00,,,0.00,WUHU216HW,2013-02-08 14:18:00,
2013-02-08 07:19:00,38.5,18.9,29.69,North,0,2.9,5.4,45,0.00,,,0.00,WUHU216HW,2013-02-08 14:19:00,
2013-02-08 07:23:00,38.5,18.9,29.69,NNE,23,2.5,3.8,45,0.00,,,0.00,WUHU216HW,2013-02-08 14:23:00,
2013-02-08 07:24:00,38.5,18.9,29.69,NNE,23,2.5,3.8,45,0.00,,,0.00,WUHU216HW,2013-02-08 14:24:00,
2013-02-08 07:28:00,38.7,19.1,29.69,North,0,1.6,3.8,45,0.00,,,0.00,WUHU216HW,2013-02-08 14:28:00,
2013-02-08 07:29:00,38.7,19.1,29.69,NNE,23,1.8,3.8,45,0.00,,,0.00,WUHU216HW,2013-02-08 14:29:00,
2013-02-08 07:33:00,38.7,19.1,29.69,North,0,4.9,4.9,45,0.00,,,0.00,WUHU216HW,2013-02-08 14:33:00,
2013-02-08 07:34:00,38.7,19.1,29.69,North,0,4.9,4.9,45,0.00,,,0.00,WUHU216HW,2013-02-08 14:34:00,
2013-02-08 07:38:00,38.9,19.2,29.69,North,0,3.4,4.9,45,0.00,,,0.00,WUHU216HW,2013-02-08 14:38:00,
2013-02-08 07:39:00,38.9,19.2,29.69,North,0,3.4,4.9,45,0.00,,,0.00,WUHU216HW,2013-02-08 14:39:00,
2013-02-08 07:43:00,38.9,19.2,29.68,NNE,23,5.4,6.7,45,0.00,,,0.00,WUHU216HW,2013-02-08 14:43:00,
2013-02-08 07:44:00,38.9,19.2,29.68,NNE,23,5.4,6.7,45,0.00,,,0.00,WUHU216HW,2013-02-08 14:44:00,
2013-02-08 07:45:00,39.1,19.4,29.69,North,0,4.7,6.7,45,0.00,,,0.00,WUHU216HW,2013-02-08 14:45:00,
2013-02-08 07:48:00,39.1,19.4,29.68,NNE,23,4.0,6.7,45,0.00,,,0.00,WUHU216HW,2013-02-08 14:48:00,
2013-02-08 07:49:00,39.1,19.4,29.68,NNE,23,4.0,6.7,45,0.00,,,0.00,WUHU216HW,2013-02-08 14:49:00,
2013-02-08 07:50:00,39.2,19.5,29.69,NE,45,3.4,6.7,45,0.00,,,0.00,WUHU216HW,2013-02-08 14:50:00,
2013-02-08 07:54:00,39.2,19.5,29.69,North,0,3.4,5.1,45,0.00,,,0.00,WUHU216HW,2013-02-08 14:54:00,
2013-02-08 07:55:00,39.2,19.5,29.69,ENE,68,1.1,5.1,45,0.00,,,0.00,WUHU216HW,2013-02-08 14:55:00,
2013-02-08 07:59:00,39.2,19.5,29.69,ENE,68,2.0,4.0,45,0.00,,,0.00,WUHU216HW,2013-02-08 14:59:00,
2013-02-08 08:00:00,39.4,19.7,29.69,ENE,68,0.9,4.0,45,0.00,,,0.00,WUHU216HW,2013-02-08 15:00:00,
2013-02-08 08:04:00,39.6,19.9,29.69,NNE,23,1.1,2.0,45,0.00,,,0.00,WUHU216HW,2013-02-08 15:04:00,
2013-02-08 08:05:00,39.4,19.7,29.69,NNE,23,3.4,3.4,45,0.00,,,0.00,WUHU216HW,2013-02-08 15:05:00,
2013-02-08 08:09:00,39.6,19.9,29.69,NNE,23,2.2,3.4,45,0.00,,,0.00,WUHU216HW,2013-02-08 15:09:00,
2013-02-08 08:10:00,39.6,19.9,29.69,NE,45,1.6,3.4,45,0.00,,,0.00,WUHU216HW,2013-02-08 15:10:00,
2013-02-08 08:14:00,39.8,20.0,29.69,NNE,23,3.4,3.4,45,0.00,,,0.00,WUHU216HW,2013-02-08 15:14:00,
2013-02-08 08:15:00,39.8,20.0,29.69,NNE,23,3.4,3.4,45,0.00,,,0.00,WUHU216HW,2013-02-08 15:15:00,
2013-02-08 08:19:00,40.0,20.7,29.69,North,0,7.6,7.6,46,0.00,,,0.00,WUHU216HW,2013-02-08 15:19:00,
2013-02-08 08:20:00,40.0,20.7,29.69,North,0,7.6,7.6,46,0.00,,,0.00,WUHU216HW,2013-02-08 15:20:00,
2013-02-08 08:24:00,40.3,20.5,29.68,NNE,23,8.1,8.1,45,0.00,,,0.00,WUHU216HW,2013-02-08 15:24:00,
2013-02-08 08:25:00,40.3,20.5,29.68,NNE,23,8.1,8.1,45,0.00,,,0.00,WUHU216HW,2013-02-08 15:25:00,
2013-02-08 08:29:00,40.3,20.5,29.69,ENE,68,0.4,8.1,45,0.00,,,0.00,WUHU216HW,2013-02-08 15:29:00,
2013-02-08 08:30:00,40.3,20.5,29.69,ENE,68,0.4,8.1,45,0.00,,,0.00,WUHU216HW,2013-02-08 15:30:00,
2013-02-08 08:31:00,40.5,20.7,29.69,ENE,68,0.2,8.1,45,0.00,,,0.00,WUHU216HW,2013-02-08 15:31:00,
2013-02-08 08:34:00,40.7,20.8,29.69,NNE,23,1.6,8.1,45,0.00,,,0.00,WUHU216HW,2013-02-08 15:34:00,
2013-02-08 08:35:00,40.7,20.8,29.69,NNE,23,1.6,8.1,45,0.00,,,0.00,WUHU216HW,2013-02-08 15:35:00,
2013-02-08 08:36:00,40.7,20.8,29.69,NE,45,4.7,8.1,45,0.00,,,0.00,WUHU216HW,2013-02-08 15:36:00,
2013-02-08 08:39:00,41.2,21.3,29.68,NNE,23,5.6,6.5,45,0.00,,,0.00,WUHU216HW,2013-02-08 15:39:00,
2013-02-08 08:40:00,41.2,21.3,29.68,NNE,23,8.5,8.5,45,0.00,,,0.00,WUHU216HW,2013-02-08 15:40:00,
2013-02-08 08:41:00,41.2,21.3,29.68,NE,45,3.1,8.5,45,0.00,,,0.00,WUHU216HW,2013-02-08 15:41:00,
2013-02-08 08:45:00,41.4,21.5,29.68,NNE,23,3.8,8.5,45,0.00,,,0.00,WUHU216HW,2013-02-08 15:45:00,
2013-02-08 08:46:00,41.4,21.5,29.68,NNE,23,5.1,8.5,45,0.00,,,0.00,WUHU216HW,2013-02-08 15:46:00,
2013-02-08 08:50:00,41.6,21.2,29.68,NNE,23,7.8,8.5,44,0.00,,,0.00,WUHU216HW,2013-02-08 15:50:00,
2013-02-08 08:51:00,41.6,21.2,29.68,NNE,23,3.6,8.1,44,0.00,,,0.00,WUHU216HW,2013-02-08 15:51:00,
2013-02-08 08:55:00,41.9,21.5,29.68,NE,45,5.6,8.1,44,0.00,,,0.00,WUHU216HW,2013-02-08 15:55:00,
2013-02-08 08:57:00,41.9,21.5,29.68,ENE,68,4.9,8.1,44,0.00,,,0.00,WUHU216HW,2013-02-08 15:57:00,
2013-02-08 09:00:00,42.1,21.6,29.68,NE,45,4.0,6.0,44,0.00,,,0.00,WUHU216HW,2013-02-08 16:00:00,
2013-02-08 09:02:00,42.1,21.6,29.68,NE,45,2.7,6.0,44,0.00,,,0.00,WUHU216HW,2013-02-08 16:02:00,
2013-02-08 09:05:00,42.3,21.8,29.67,NE,45,6.5,6.5,44,0.00,,,0.00,WUHU216HW,2013-02-08 16:05:00,
2013-02-08 09:06:00,42.3,21.8,29.67,North,0,4.9,6.5,44,0.00,,,0.00,WUHU216HW,2013-02-08 16:06:00,
2013-02-08 09:07:00,42.5,22.0,29.67,NE,45,4.5,6.5,44,0.00,,,0.00,WUHU216HW,2013-02-08 16:07:00,
2013-02-08 09:10:00,42.5,21.4,29.67,NNE,23,6.5,6.5,43,0.00,,,0.00,WUHU216HW,2013-02-08 16:10:00,
2013-02-08 09:11:00,42.5,21.4,29.67,NNE,23,6.5,6.5,43,0.00,,,0.00,WUHU216HW,2013-02-08 16:11:00,
2013-02-08 09:13:00,42.7,21.6,29.67,NNE,23,3.8,6.5,43,0.00,,,0.00,WUHU216HW,2013-02-08 16:13:00,
2013-02-08 09:15:00,42.8,21.8,29.67,ENE,68,4.7,6.5,43,0.00,,,0.00,WUHU216HW,2013-02-08 16:15:00,
2013-02-08 09:16:00,42.8,21.8,29.67,ENE,68,4.7,6.5,43,0.00,,,0.00,WUHU216HW,2013-02-08 16:16:00,
2013-02-08 09:18:00,42.8,21.8,29.68,ENE,68,2.5,6.5,43,0.00,,,0.00,WUHU216HW,2013-02-08 16:18:00,
2013-02-08 09:20:00,43.2,22.2,29.67,NNE,23,3.4,6.3,43,0.00,,,0.00,WUHU216HW,2013-02-08 16:20:00,
2013-02-08 09:21:00,43.2,22.2,29.67,ENE,68,3.8,6.0,43,0.00,,,0.00,WUHU216HW,2013-02-08 16:21:00,
2013-02-08 09:23:00,43.6,22.4,29.67,ENE,68,4.0,6.0,43,0.00,,,0.00,WUHU216HW,2013-02-08 16:23:00,
2013-02-08 09:25:00,43.7,22.6,29.67,NE,45,5.4,6.0,43,0.00,,,0.00,WUHU216HW,2013-02-08 16:25:00,
2013-02-08 09:26:00,43.9,22.8,29.67,NNE,23,2.5,5.4,43,0.00,,,0.00,WUHU216HW,2013-02-08 16:26:00,
2013-02-08 09:28:00,44.1,23.0,29.67,ENE,68,4.7,5.4,43,0.00,,,0.00,WUHU216HW,2013-02-08 16:28:00,
2013-02-08 09:30:00,44.3,22.5,29.67,NE,45,4.3,6.7,42,0.00,,,0.00,WUHU216HW,2013-02-08 16:30:00,
2013-02-08 09:31:00,44.5,22.7,29.67,NNE,23,5.6,6.7,42,0.00,,,0.00,WUHU216HW,2013-02-08 16:31:00,
2013-02-08 09:33:00,44.8,23.1,29.67,ENE,68,2.9,6.7,42,0.00,,,0.00,WUHU216HW,2013-02-08 16:33:00,
2013-02-08 09:35:00,45.0,23.2,29.67,NE,45,4.0,6.7,42,0.00,,,0.00,WUHU216HW,2013-02-08 16:35:00,
2013-02-08 09:36:00,45.0,22.7,29.67,North,0,5.8,6.7,41,0.00,,,0.00,WUHU216HW,2013-02-08 16:36:00,
2013-02-08 09:38:00,45.2,22.2,29.67,ENE,68,3.6,6.7,40,0.00,,,0.00,WUHU216HW,2013-02-08 16:38:00,
2013-02-08 09:41:00,45.2,22.2,29.66,NE,45,5.4,5.8,40,0.00,,,0.00,WUHU216HW,2013-02-08 16:41:00,
2013-02-08 09:43:00,45.5,22.6,29.66,ENE,68,3.1,5.8,40,0.00,,,0.00,WUHU216HW,2013-02-08 16:43:00,
2013-02-08 09:46:00,45.5,22.6,29.66,NNE,23,3.8,5.8,40,0.00,,,0.00,WUHU216HW,2013-02-08 16:46:00,
2013-02-08 09:49:00,45.7,22.8,29.66,NE,45,3.1,5.4,40,0.00,,,0.00,WUHU216HW,2013-02-08 16:49:00,
2013-02-08 09:51:00,46.1,23.0,29.66,NE,45,3.6,5.1,40,0.00,,,0.00,WUHU216HW,2013-02-08 16:51:00,
2013-02-08 09:54:00,46.1,22.4,29.66,NNE,23,4.5,4.9,39,0.00,,,0.00,WUHU216HW,2013-02-08 16:54:00,
2013-02-08 09:56:00,46.3,22.6,29.66,NE,45,4.5,6.0,39,0.00,,,0.00,WUHU216HW,2013-02-08 16:56:00,
2013-02-08 09:57:00,46.3,22.6,29.66,NNE,23,4.3,6.0,39,0.00,,,0.00,WUHU216HW,2013-02-08 16:57:00,
2013-02-08 09:59:00,46.3,22.6,29.66,North,0,4.0,6.0,39,0.00,,,0.00,WUHU216HW,2013-02-08 16:59:00,
2013-02-08 10:02:00,46.4,22.8,29.66,NNE,23,4.5,6.0,39,0.00,,,0.00,WUHU216HW,2013-02-08 17:02:00,
2013-02-08 10:03:00,46.4,22.8,29.66,NE,45,4.7,6.0,39,0.00,,,0.00,WUHU216HW,2013-02-08 17:03:00,
2013-02-08 10:04:00,46.6,22.9,29.66,North,0,6.0,6.0,39,0.00,,,0.00,WUHU216HW,2013-02-08 17:04:00,
2013-02-08 10:07:00,46.8,22.4,29.66,NNE,23,4.5,6.0,38,0.00,,,0.00,WUHU216HW,2013-02-08 17:07:00,
2013-02-08 10:08:00,46.8,22.4,29.66,NNE,23,5.4,6.0,38,0.00,,,0.00,WUHU216HW,2013-02-08 17:08:00,
2013-02-08 10:09:00,46.8,23.0,29.66,North,0,2.9,6.0,39,0.00,,,0.00,WUHU216HW,2013-02-08 17:09:00,
2013-02-08 10:12:00,47.0,22.6,29.66,NE,45,4.3,6.0,38,0.00,,,0.00,WUHU216HW,2013-02-08 17:12:00,
2013-02-08 10:13:00,47.2,22.7,29.66,NE,45,5.4,6.0,38,0.00,,,0.00,WUHU216HW,2013-02-08 17:13:00,
2013-02-08 10:14:00,47.2,23.4,29.66,NE,45,5.4,6.0,39,0.00,,,0.00,WUHU216HW,2013-02-08 17:14:00,
2013-02-08 10:17:00,47.5,23.0,29.66,NNE,23,6.3,6.3,38,0.00,,,0.00,WUHU216HW,2013-02-08 17:17:00,
2013-02-08 10:18:00,47.5,23.0,29.66,ENE,68,4.9,6.3,38,0.00,,,0.00,WUHU216HW,2013-02-08 17:18:00,
2013-02-08 10:19:00,47.5,23.0,29.66,NE,45,3.4,6.3,38,0.00,,,0.00,WUHU216HW,2013-02-08 17:19:00,
2013-02-08 10:22:00,47.7,23.2,29.65,NE,45,3.4,6.3,38,0.00,,,0.00,WUHU216HW,2013-02-08 17:22:00,
2013-02-08 10:23:00,47.7,23.2,29.65,NE,45,3.4,6.3,38,0.00,,,0.00,WUHU216HW,2013-02-08 17:23:00,
2013-02-08 10:25:00,47.7,23.2,29.66,ENE,68,1.8,6.3,38,0.00,,,0.00,WUHU216HW,2013-02-08 17:25:00,
2013-02-08 10:28:00,47.9,23.4,29.65,NE,45,4.7,5.8,38,0.00,,,0.00,WUHU216HW,2013-02-08 17:28:00,
2013-02-08 10:30:00,47.9,23.4,29.65,North,0,3.4,5.8,38,0.00,,,0.00,WUHU216HW,2013-02-08 17:30:00,
2013-02-08 10:33:00,48.2,23.7,29.65,SE,135,0.9,4.7,38,0.00,,,0.00,WUHU216HW,2013-02-08 17:33:00,
2013-02-08 10:35:00,48.2,23.7,29.65,ENE,68,0.9,4.7,38,0.00,,,0.00,WUHU216HW,2013-02-08 17:35:00,
2013-02-08 10:38:00,48.4,23.9,29.65,ENE,68,0.4,4.3,38,0.00,,,0.00,WUHU216HW,2013-02-08 17:38:00,
2013-02-08 10:40:00,48.4,23.9,29.65,North,0,1.8,3.4,38,0.00,,,0.00,WUHU216HW,2013-02-08 17:40:00,
2013-02-08 10:43:00,48.4,23.9,29.65,North,0,1.1,1.8,38,0.00,,,0.00,WUHU216HW,2013-02-08 17:43:00,
2013-02-08 10:44:00,48.6,24.0,29.65,North,0,2.5,2.5,38,0.00,,,0.00,WUHU216HW,2013-02-08 17:44:00,
2013-02-08 10:45:00,48.6,24.0,29.65,North,0,0.9,2.5,38,0.00,,,0.00,WUHU216HW,2013-02-08 17:45:00,
2013-02-08 10:48:00,48.6,24.0,29.65,North,0,0.4,2.5,38,0.00,,,0.00,WUHU216HW,2013-02-08 17:48:00,
2013-02-08 10:49:00,48.6,24.0,29.65,North,0,2.2,2.5,38,0.00,,,0.00,WUHU216HW,2013-02-08 17:49:00,
2013-02-08 10:50:00,49.0,24.3,29.65,North,0,0.0,2.5,38,0.00,,,0.00,WUHU216HW,2013-02-08 17:50:00,
2013-02-08 10:53:00,49.0,24.3,29.65,NNE,23,1.8,2.5,38,0.00,,,0.00,WUHU216HW,2013-02-08 17:53:00,
2013-02-08 10:54:00,49.0,23.7,29.65,North,0,4.0,4.0,37,0.00,,,0.00,WUHU216HW,2013-02-08 17:54:00,
2013-02-08 10:55:00,49.1,23.8,29.65,North,0,4.5,4.5,37,0.00,,,0.00,WUHU216HW,2013-02-08 17:55:00,
2013-02-08 10:58:00,49.0,23.7,29.65,NNE,23,2.9,4.5,37,0.00,,,0.00,WUHU216HW,2013-02-08 17:58:00,
2013-02-08 10:59:00,49.0,23.7,29.65,NNE,23,3.1,4.5,37,0.00,,,0.00,WUHU216HW,2013-02-08 17:59:00,
2013-02-08 11:01:00,49.0,23.7,29.65,North,0,2.0,4.7,37,0.00,,,0.00,WUHU216HW,2013-02-08 18:01:00,
2013-02-08 11:03:00,49.0,23.7,29.65,North,0,2.2,4.7,37,0.00,,,0.00,WUHU216HW,2013-02-08 18:03:00,
2013-02-08 11:04:00,49.0,23.7,29.65,North,0,2.2,4.7,37,0.00,,,0.00,WUHU216HW,2013-02-08 18:04:00,
2013-02-08 11:06:00,49.1,23.8,29.65,NNE,23,3.4,4.7,37,0.00,,,0.00,WUHU216HW,2013-02-08 18:06:00,
2013-02-08 11:08:00,49.3,23.9,29.65,NE,45,1.6,4.7,37,0.00,,,0.00,WUHU216HW,2013-02-08 18:08:00,
2013-02-08 11:09:00,49.3,23.9,29.65,NE,45,1.6,4.7,37,0.00,,,0.00,WUHU216HW,2013-02-08 18:09:00,
2013-02-08 11:11:00,49.3,23.9,29.64,ESE,113,1.8,3.6,37,0.00,,,0.00,WUHU216HW,2013-02-08 18:11:00,
2013-02-08 11:13:00,49.3,23.9,29.64,NE,45,1.8,3.4,37,0.00,,,0.00,WUHU216HW,2013-02-08 18:13:00,
2013-02-08 11:14:00,49.3,23.9,29.64,NE,45,1.8,3.4,37,0.00,,,0.00,WUHU216HW,2013-02-08 18:14:00,
2013-02-08 11:16:00,49.5,24.1,29.64,ESE,113,0.9,1.8,37,0.00,,,0.00,WUHU216HW,2013-02-08 18:16:00,
2013-02-08 11:18:00,49.5,24.1,29.64,SSE,158,0.9,4.5,37,0.00,,,0.00,WUHU216HW,2013-02-08 18:18:00,
2013-02-08 11:19:00,49.5,24.1,29.64,SSE,158,0.4,4.5,37,0.00,,,0.00,WUHU216HW,2013-02-08 18:19:00,
2013-02-08 11:21:00,49.7,24.3,29.64,SE,135,0.2,4.5,37,0.00,,,0.00,WUHU216HW,2013-02-08 18:21:00,
2013-02-08 11:23:00,49.7,24.3,29.64,ESE,113,0.7,4.5,37,0.00,,,0.00,WUHU216HW,2013-02-08 18:23:00,
2013-02-08 11:24:00,49.7,24.3,29.64,ESE,113,0.7,4.5,37,0.00,,,0.00,WUHU216HW,2013-02-08 18:24:00,
2013-02-08 11:26:00,49.9,23.8,29.63,ESE,113,1.6,4.7,36,0.00,,,0.00,WUHU216HW,2013-02-08 18:26:00,
2013-02-08 11:29:00,49.9,23.8,29.63,ESE,113,1.3,4.7,36,0.00,,,0.00,WUHU216HW,2013-02-08 18:29:00,
2013-02-08 11:30:00,49.9,23.8,29.63,ESE,113,1.3,4.7,36,0.00,,,0.00,WUHU216HW,2013-02-08 18:30:00,
2013-02-08 11:31:00,49.9,23.8,29.63,East,90,3.6,4.7,36,0.00,,,0.00,WUHU216HW,2013-02-08 18:31:00,
2013-02-08 11:34:00,49.7,23.6,29.63,SSE,158,3.4,4.7,36,0.00,,,0.00,WUHU216HW,2013-02-08 18:34:00,
2013-02-08 11:35:00,49.7,23.6,29.63,SSE,158,3.4,4.0,36,0.00,,,0.00,WUHU216HW,2013-02-08 18:35:00,
2013-02-08 11:37:00,49.9,23.8,29.62,South,180,4.7,4.7,36,0.00,,,0.00,WUHU216HW,2013-02-08 18:37:00,
2013-02-08 11:39:00,49.7,23.6,29.62,SE,135,4.0,4.7,36,0.00,,,0.00,WUHU216HW,2013-02-08 18:39:00,
2013-02-08 11:40:00,49.7,23.6,29.62,SSE,158,4.5,4.7,36,0.00,,,0.00,WUHU216HW,2013-02-08 18:40:00,
2013-02-08 11:42:00,49.7,23.6,29.62,SE,135,3.8,4.7,36,0.00,,,0.00,WUHU216HW,2013-02-08 18:42:00,
2013-02-08 11:44:00,49.7,23.6,29.62,South,180,5.6,5.6,36,0.00,,,0.00,WUHU216HW,2013-02-08 18:44:00,
2013-02-08 11:45:00,49.7,23.6,29.62,SSW,203,2.7,5.6,36,0.00,,,0.00,WUHU216HW,2013-02-08 18:45:00,
2013-02-08 11:47:00,49.9,23.8,29.62,ESE,113,1.1,5.6,36,0.00,,,0.00,WUHU216HW,2013-02-08 18:47:00,
2013-02-08 11:49:00,49.9,23.8,29.61,ESE,113,2.5,5.6,36,0.00,,,0.00,WUHU216HW,2013-02-08 18:49:00,
2013-02-08 11:50:00,49.9,23.8,29.61,South,180,3.6,5.6,36,0.00,,,0.00,WUHU216HW,2013-02-08 18:50:00,
2013-02-08 11:51:00,49.9,23.8,29.61,South,180,3.6,5.6,36,0.00,,,0.00,WUHU216HW,2013-02-08 18:51:00,
2013-02-08 11:52:00,50.0,24.0,29.61,SE,135,0.7,5.6,36,0.00,,,0.00,WUHU216HW,2013-02-08 18:52:00,
2013-02-08 11:55:00,50.0,24.0,29.61,ESE,113,1.8,3.6,36,0.00,,,0.00,WUHU216HW,2013-02-08 18:55:00,
2013-02-08 11:56:00,50.0,24.0,29.61,East,90,2.0,3.6,36,0.00,,,0.00,WUHU216HW,2013-02-08 18:56:00,
2013-02-08 11:58:00,50.0,24.0,29.61,South,180,4.5,4.5,36,0.00,,,0.00,WUHU216HW,2013-02-08 18:58:00,
2013-02-08 12:00:00,50.2,24.0,29.60,SSW,203,0.4,4.5,36,0.00,,,0.00,WUHU216HW,2013-02-08 19:00:00,
2013-02-08 12:01:00,50.2,24.0,29.60,SSW,203,0.4,4.5,36,0.00,,,0.00,WUHU216HW,2013-02-08 19:01:00,
2013-02-08 12:04:00,50.6,24.4,29.60,ESE,113,0.4,4.5,36,0.00,,,0.00,WUHU216HW,2013-02-08 19:04:00,
2013-02-08 12:05:00,50.8,24.6,29.60,East,90,0.9,4.5,36,0.00,,,0.00,WUHU216HW,2013-02-08 19:05:00,
2013-02-08 12:06:00,50.8,24.6,29.60,ENE,68,2.5,4.5,36,0.00,,,0.00,WUHU216HW,2013-02-08 19:06:00,
2013-02-08 12:09:00,50.8,24.6,29.60,ENE,68,2.2,3.1,36,0.00,,,0.00,WUHU216HW,2013-02-08 19:09:00,
2013-02-08 12:10:00,50.9,24.8,29.59,NE,45,0.7,3.1,36,0.00,,,0.00,WUHU216HW,2013-02-08 19:10:00,
2013-02-08 12:11:00,51.1,24.8,29.59,ENE,68,1.1,3.1,36,0.00,,,0.00,WUHU216HW,2013-02-08 19:11:00,
2013-02-08 12:14:00,51.3,25.0,29.59,SE,135,1.1,3.1,36,0.00,,,0.00,WUHU216HW,2013-02-08 19:14:00,
2013-02-08 12:15:00,51.3,25.0,29.59,SE,135,1.6,3.1,36,0.00,,,0.00,WUHU216HW,2013-02-08 19:15:00,
2013-02-08 12:16:00,51.5,25.2,29.59,SSE,158,2.9,3.1,36,0.00,,,0.00,WUHU216HW,2013-02-08 19:16:00,
2013-02-08 12:19:00,51.5,23.9,29.59,SSW,203,0.2,2.9,34,0.00,,,0.00,WUHU216HW,2013-02-08 19:19:00,
2013-02-08 12:21:00,51.7,24.7,29.59,WNW,293,0.0,2.9,35,0.00,,,0.00,WUHU216HW,2013-02-08 19:21:00,
2013-02-08 12:24:00,52.2,24.5,29.59,East,90,1.8,2.9,34,0.00,,,0.00,WUHU216HW,2013-02-08 19:24:00,
2013-02-08 12:26:00,52.2,24.5,29.58,SSE,158,2.5,2.5,34,0.00,,,0.00,WUHU216HW,2013-02-08 19:26:00,
2013-02-08 12:29:00,52.7,24.3,29.58,SSE,158,2.5,3.1,33,0.00,,,0.00,WUHU216HW,2013-02-08 19:29:00,
2013-02-08 12:31:00,52.9,25.1,29.58,SSE,158,1.8,3.1,34,0.00,,,0.00,WUHU216HW,2013-02-08 19:31:00,
2013-02-08 12:32:00,52.9,25.1,29.58,SSE,158,1.8,3.1,34,0.00,,,0.00,WUHU216HW,2013-02-08 19:32:00,
2013-02-08 12:35:00,53.3,25.5,29.58,South,180,1.3,3.1,34,0.00,,,0.00,WUHU216HW,2013-02-08 19:35:00,
2013-02-08 12:36:00,53.5,25.7,29.58,NNE,23,4.0,4.0,34,0.00,,,0.00,WUHU216HW,2013-02-08 19:36:00,
2013-02-08 12:37:00,53.5,25.7,29.58,NNE,23,4.0,4.0,34,0.00,,,0.00,WUHU216HW,2013-02-08 19:37:00,
2013-02-08 12:40:00,53.6,25.1,29.57,ENE,68,2.0,4.0,33,0.00,,,0.00,WUHU216HW,2013-02-08 19:40:00,
2013-02-08 12:41:00,53.6,25.1,29.57,East,90,1.6,4.0,33,0.00,,,0.00,WUHU216HW,2013-02-08 19:41:00,
2013-02-08 12:42:00,53.6,25.1,29.57,East,90,1.6,4.0,33,0.00,,,0.00,WUHU216HW,2013-02-08 19:42:00,
2013-02-08 12:45:00,53.8,25.2,29.57,ENE,68,0.9,4.0,33,0.00,,,0.00,WUHU216HW,2013-02-08 19:45:00,
2013-02-08 12:47:00,53.8,25.2,29.56,ENE,68,3.4,4.0,33,0.00,,,0.00,WUHU216HW,2013-02-08 19:47:00,
2013-02-08 12:50:00,53.6,25.1,29.56,SE,135,3.4,4.0,33,0.00,,,0.00,WUHU216HW,2013-02-08 19:50:00,
2013-02-08 12:52:00,53.6,25.1,29.56,SSE,158,2.2,4.0,33,0.00,,,0.00,WUHU216HW,2013-02-08 19:52:00,
2013-02-08 12:55:00,53.8,24.6,29.56,ESE,113,1.8,4.0,32,0.00,,,0.00,WUHU216HW,2013-02-08 19:55:00,
2013-02-08 12:57:00,53.8,25.2,29.56,ESE,113,0.7,3.4,33,0.00,,,0.00,WUHU216HW,2013-02-08 19:57:00,
2013-02-08 12:58:00,54.0,25.4,29.55,ENE,68,0.7,3.4,33,0.00,,,0.00,WUHU216HW,2013-02-08 19:58:00,
2013-02-08 13:00:00,54.0,24.7,29.55,NE,45,0.7,2.5,32,0.00,,,0.00,WUHU216HW,2013-02-08 20:00:00,
2013-02-08 13:02:00,54.2,24.8,29.55,North,0,4.0,4.0,32,0.00,,,0.00,WUHU216HW,2013-02-08 20:02:00,
2013-02-08 13:03:00,54.0,24.7,29.55,NE,45,2.5,4.0,32,0.00,,,0.00,WUHU216HW,2013-02-08 20:03:00,
2013-02-08 13:05:00,54.2,24.8,29.54,NE,45,5.4,5.4,32,0.00,,,0.00,WUHU216HW,2013-02-08 20:05:00,
2013-02-08 13:07:00,54.2,24.8,29.54,NE,45,1.8,5.4,32,0.00,,,0.00,WUHU216HW,2013-02-08 20:07:00,
2013-02-08 13:08:00,54.4,25.0,29.54,ESE,113,2.0,5.4,32,0.00,,,0.00,WUHU216HW,2013-02-08 20:08:00,
2013-02-08 13:11:00,54.5,25.1,29.54,East,90,1.6,5.4,32,0.00,,,0.00,WUHU216HW,2013-02-08 20:11:00,
2013-02-08 13:12:00,54.5,25.1,29.54,NE,45,2.2,5.4,32,0.00,,,0.00,WUHU216HW,2013-02-08 20:12:00,
2013-02-08 13:13:00,54.7,25.3,29.54,East,90,2.5,5.4,32,0.00,,,0.00,WUHU216HW,2013-02-08 20:13:00,
2013-02-08 13:16:00,54.9,25.5,29.54,NE,45,3.8,3.8,32,0.00,,,0.00,WUHU216HW,2013-02-08 20:16:00,
2013-02-08 13:17:00,55.1,25.6,29.54,NNE,23,3.4,3.8,32,0.00,,,0.00,WUHU216HW,2013-02-08 20:17:00,
2013-02-08 13:18:00,55.1,24.9,29.54,NNW,338,3.6,3.8,31,0.00,,,0.00,WUHU216HW,2013-02-08 20:18:00,
2013-02-08 13:21:00,55.4,25.9,29.53,ENE,68,1.1,3.8,32,0.00,,,0.00,WUHU216HW,2013-02-08 20:21:00,
2013-02-08 13:22:00,55.4,25.9,29.53,SE,135,0.4,3.8,32,0.00,,,0.00,WUHU216HW,2013-02-08 20:22:00,
2013-02-08 13:23:00,55.6,26.0,29.54,North,0,1.1,3.8,32,0.00,,,0.00,WUHU216HW,2013-02-08 20:23:00,
2013-02-08 13:26:00,55.8,26.2,29.53,NNE,23,2.2,3.6,32,0.00,,,0.00,WUHU216HW,2013-02-08 20:26:00,
2013-02-08 13:27:00,56.0,25.7,29.54,ENE,68,2.5,3.6,31,0.00,,,0.00,WUHU216HW,2013-02-08 20:27:00,
2013-02-08 13:29:00,56.2,25.8,29.53,NNE,23,2.0,2.5,31,0.00,,,0.00,WUHU216HW,2013-02-08 20:29:00,
2013-02-08 13:31:00,56.5,26.2,29.53,SSW,203,8.7,8.7,31,0.00,,,0.00,WUHU216HW,2013-02-08 20:31:00,
2013-02-08 13:32:00,56.5,25.5,29.53,SE,135,9.8,9.8,30,0.00,,,0.00,WUHU216HW,2013-02-08 20:32:00,
2013-02-08 13:33:00,56.5,25.5,29.53,SE,135,9.8,9.8,30,0.00,,,0.00,WUHU216HW,2013-02-08 20:33:00,
2013-02-08 13:34:00,56.7,24.7,29.53,SSE,158,10.5,10.5,29,0.00,,,0.00,WUHU216HW,2013-02-08 20:34:00,
2013-02-08 13:36:00,57.2,25.1,29.52,SSE,158,17.9,17.9,29,0.00,,,0.00,WUHU216HW,2013-02-08 20:36:00,
2013-02-08 13:38:00,57.4,24.4,29.52,SSW,203,17.4,17.9,28,0.00,,,0.00,WUHU216HW,2013-02-08 20:38:00,
2013-02-08 13:39:00,57.4,24.4,29.52,South,180,9.8,17.9,28,0.00,,,0.00,WUHU216HW,2013-02-08 20:39:00,
2013-02-08 13:41:00,57.8,24.7,29.52,South,180,16.1,17.9,28,0.00,,,0.00,WUHU216HW,2013-02-08 20:41:00,
2013-02-08 13:43:00,57.8,24.7,29.52,SSE,158,16.1,17.9,28,0.00,,,0.00,WUHU216HW,2013-02-08 20:43:00,
2013-02-08 13:44:00,57.8,24.7,29.52,SSE,158,15.0,17.9,28,0.00,,,0.00,WUHU216HW,2013-02-08 20:44:00,
2013-02-08 13:47:00,58.0,23.9,29.52,SSE,158,22.8,22.8,27,0.00,,,0.00,WUHU216HW,2013-02-08 20:47:00,
2013-02-08 13:48:00,58.0,23.9,29.52,South,180,21.5,22.8,27,0.00,,,0.00,WUHU216HW,2013-02-08 20:48:00,
2013-02-08 13:49:00,58.0,23.9,29.51,SSE,158,21.9,22.8,27,0.00,,,0.00,WUHU216HW,2013-02-08 20:49:00,
2013-02-08 13:52:00,57.8,23.7,29.52,SSE,158,13.9,22.8,27,0.00,,,0.00,WUHU216HW,2013-02-08 20:52:00,
2013-02-08 13:53:00,58.0,23.9,29.52,SSE,158,11.6,22.8,27,0.00,,,0.00,WUHU216HW,2013-02-08 20:53:00,
2013-02-08 13:54:00,58.0,23.9,29.51,South,180,16.3,22.8,27,0.00,,,0.00,WUHU216HW,2013-02-08 20:54:00,
2013-02-08 13:57:00,57.8,24.7,29.51,SSW,203,17.9,21.9,28,0.00,,,0.00,WUHU216HW,2013-02-08 20:57:00,
2013-02-08 13:58:00,57.8,24.7,29.51,South,180,12.5,21.9,28,0.00,,,0.00,WUHU216HW,2013-02-08 20:58:00,
2013-02-08 13:59:00,57.8,23.7,29.51,South,180,18.3,19.0,27,0.00,,,0.00,WUHU216HW,2013-02-08 20:59:00,
2013-02-08 14:02:00,58.0,24.9,29.51,South,180,22.6,22.6,28,0.00,,,0.00,WUHU216HW,2013-02-08 21:02:00,
2013-02-08 14:03:00,58.0,24.9,29.51,SSE,158,15.0,22.6,28,0.00,,,0.00,WUHU216HW,2013-02-08 21:03:00,
2013-02-08 14:04:00,58.0,24.9,29.51,South,180,13.4,22.6,28,0.00,,,0.00,WUHU216HW,2013-02-08 21:04:00,
2013-02-08 14:07:00,58.1,25.0,29.51,SSE,158,14.8,22.6,28,0.00,,,0.00,WUHU216HW,2013-02-08 21:07:00,
2013-02-08 14:08:00,58.1,25.0,29.51,SSW,203,19.5,22.6,28,0.00,,,0.00,WUHU216HW,2013-02-08 21:08:00,
2013-02-08 14:09:00,58.1,25.0,29.50,SSE,158,13.4,22.6,28,0.00,,,0.00,WUHU216HW,2013-02-08 21:09:00,
2013-02-08 14:10:00,58.3,24.2,29.50,South,180,15.9,22.6,27,0.00,,,0.00,WUHU216HW,2013-02-08 21:10:00,
2013-02-08 14:12:00,58.3,24.2,29.50,South,180,19.2,19.5,27,0.00,,,0.00,WUHU216HW,2013-02-08 21:12:00,
2013-02-08 14:13:00,58.5,24.3,29.50,South,180,9.8,19.5,27,0.00,,,0.00,WUHU216HW,2013-02-08 21:13:00,
2013-02-08 14:14:00,58.5,24.3,29.50,South,180,9.8,19.5,27,0.00,,,0.00,WUHU216HW,2013-02-08 21:14:00,
2013-02-08 14:15:00,58.7,24.5,29.50,SSE,158,21.9,21.9,27,0.00,,,0.00,WUHU216HW,2013-02-08 21:15:00,
2013-02-08 14:17:00,58.7,24.5,29.50,South,180,14.3,21.9,27,0.00,,,0.00,WUHU216HW,2013-02-08 21:17:00,
2013-02-08 14:19:00,58.9,24.7,29.50,SSE,158,13.2,21.9,27,0.00,,,0.00,WUHU216HW,2013-02-08 21:19:00,
2013-02-08 14:21:00,58.9,24.7,29.50,SSE,158,18.1,21.9,27,0.00,,,0.00,WUHU216HW,2013-02-08 21:21:00,
2013-02-08 14:22:00,58.7,24.5,29.50,South,180,15.7,21.9,27,0.00,,,0.00,WUHU216HW,2013-02-08 21:22:00,
2013-02-08 14:24:00,58.7,24.5,29.50,SSE,158,10.7,21.9,27,0.00,,,0.00,WUHU216HW,2013-02-08 21:24:00,
2013-02-08 14:26:00,58.7,24.5,29.50,SSW,203,11.9,18.6,27,0.00,,,0.00,WUHU216HW,2013-02-08 21:26:00,
2013-02-08 14:27:00,58.5,24.3,29.50,South,180,17.7,18.6,27,0.00,,,0.00,WUHU216HW,2013-02-08 21:27:00,
2013-02-08 14:29:00,58.5,24.3,29.50,SSE,158,13.9,18.6,27,0.00,,,0.00,WUHU216HW,2013-02-08 21:29:00,
2013-02-08 14:31:00,58.5,24.3,29.50,SSE,158,14.3,18.8,27,0.00,,,0.00,WUHU216HW,2013-02-08 21:31:00,
2013-02-08 14:32:00,58.5,24.3,29.50,South,180,21.5,21.5,27,0.00,,,0.00,WUHU216HW,2013-02-08 21:32:00,
2013-02-08 14:34:00,58.5,24.3,29.50,South,180,14.3,21.5,27,0.00,,,0.00,WUHU216HW,2013-02-08 21:34:00,
2013-02-08 14:36:00,58.3,24.2,29.50,South,180,17.0,21.5,27,0.00,,,0.00,WUHU216HW,2013-02-08 21:36:00,
2013-02-08 14:37:00,58.3,24.2,29.49,SE,135,16.6,21.5,27,0.00,,,0.00,WUHU216HW,2013-02-08 21:37:00,
2013-02-08 14:39:00,58.3,24.2,29.49,SSE,158,17.9,21.5,27,0.00,,,0.00,WUHU216HW,2013-02-08 21:39:00,
2013-02-08 14:41:00,58.1,24.0,29.49,SE,135,15.2,21.5,27,0.00,,,0.00,WUHU216HW,2013-02-08 21:41:00,
2013-02-08 14:43:00,58.3,24.2,29.49,South,180,21.7,21.7,27,0.00,,,0.00,WUHU216HW,2013-02-08 21:43:00,
2013-02-08 14:44:00,58.3,24.2,29.49,SSE,158,13.0,21.7,27,0.00,,,0.00,WUHU216HW,2013-02-08 21:44:00,
2013-02-08 14:46:00,58.1,24.0,29.49,South,180,14.3,21.7,27,0.00,,,0.00,WUHU216HW,2013-02-08 21:46:00,
2013-02-08 14:48:00,58.0,23.9,29.49,SSE,158,17.4,21.7,27,0.00,,,0.00,WUHU216HW,2013-02-08 21:48:00,
2013-02-08 14:49:00,58.0,23.9,29.49,South,180,20.1,21.7,27,0.00,,,0.00,WUHU216HW,2013-02-08 21:49:00,
2013-02-08 14:51:00,58.0,23.9,29.49,SSW,203,17.9,21.7,27,0.00,,,0.00,WUHU216HW,2013-02-08 21:51:00,
2013-02-08 14:53:00,57.8,23.7,29.49,South,180,10.5,20.1,27,0.00,,,0.00,WUHU216HW,2013-02-08 21:53:00,
2013-02-08 14:54:00,57.8,23.7,29.49,SSE,158,25.9,25.9,27,0.00,,,0.00,WUHU216HW,2013-02-08 21:54:00,
2013-02-08 14:56:00,58.0,23.9,29.49,SSE,158,14.8,25.9,27,0.00,,,0.00,WUHU216HW,2013-02-08 21:56:00,
2013-02-08 14:58:00,58.0,23.9,29.49,SSE,158,18.3,25.9,27,0.00,,,0.00,WUHU216HW,2013-02-08 21:58:00,
2013-02-08 14:59:00,58.0,23.9,29.49,SSE,158,18.3,25.9,27,0.00,,,0.00,WUHU216HW,2013-02-08 21:59:00,
2013-02-08 15:01:00,58.0,23.9,29.48,SSE,158,16.3,25.9,27,0.00,,,0.00,WUHU216HW,2013-02-08 22:01:00,
2013-02-08 15:03:00,58.0,23.9,29.48,SSE,158,14.8,25.9,27,0.00,,,0.00,WUHU216HW,2013-02-08 22:03:00,
2013-02-08 15:04:00,58.0,23.9,29.48,SSE,158,16.8,19.7,27,0.00,,,0.00,WUHU216HW,2013-02-08 22:04:00,
2013-02-08 15:07:00,58.0,23.9,29.48,South,180,15.0,19.7,27,0.00,,,0.00,WUHU216HW,2013-02-08 22:07:00,
2013-02-08 15:09:00,58.0,23.9,29.48,South,180,15.0,19.7,27,0.00,,,0.00,WUHU216HW,2013-02-08 22:09:00,
2013-02-08 15:10:00,58.0,23.9,29.48,South,180,15.0,16.8,27,0.00,,,0.00,WUHU216HW,2013-02-08 22:10:00,
2013-02-08 15:12:00,58.1,24.0,29.48,South,180,17.4,17.4,27,0.00,,,0.00,WUHU216HW,2013-02-08 22:12:00,
2013-02-08 15:14:00,58.0,23.9,29.48,SSE,158,14.3,18.1,27,0.00,,,0.00,WUHU216HW,2013-02-08 22:14:00,
2013-02-08 15:15:00,58.0,23.9,29.48,SSE,158,14.1,18.1,27,0.00,,,0.00,WUHU216HW,2013-02-08 22:15:00,
2013-02-08 15:17:00,58.0,23.9,29.48,SSE,158,17.4,18.1,27,0.00,,,0.00,WUHU216HW,2013-02-08 22:17:00,
2013-02-08 15:19:00,58.0,23.9,29.48,SSE,158,14.8,18.1,27,0.00,,,0.00,WUHU216HW,2013-02-08 22:19:00,
2013-02-08 15:20:00,58.0,23.9,29.48,SSE,158,14.8,18.1,27,0.00,,,0.00,WUHU216HW,2013-02-08 22:20:00,
2013-02-08 15:22:00,58.1,24.0,29.48,South,180,12.8,18.1,27,0.00,,,0.00,WUHU216HW,2013-02-08 22:22:00,
2013-02-08 15:24:00,58.0,23.9,29.48,South,180,12.8,17.4,27,0.00,,,0.00,WUHU216HW,2013-02-08 22:24:00,
2013-02-08 15:25:00,58.0,23.9,29.48,South,180,12.8,17.4,27,0.00,,,0.00,WUHU216HW,2013-02-08 22:25:00,
2013-02-08 15:27:00,58.0,23.9,29.48,South,180,13.4,19.5,27,0.00,,,0.00,WUHU216HW,2013-02-08 22:27:00,
2013-02-08 15:29:00,58.0,23.9,29.48,SSE,158,17.4,19.5,27,0.00,,,0.00,WUHU216HW,2013-02-08 22:29:00,
2013-02-08 15:30:00,58.0,23.9,29.48,SSE,158,17.4,19.5,27,0.00,,,0.00,WUHU216HW,2013-02-08 22:30:00,
2013-02-08 15:32:00,58.0,23.9,29.48,SSE,158,17.2,19.5,27,0.00,,,0.00,WUHU216HW,2013-02-08 22:32:00,
2013-02-08 15:34:00,58.0,23.9,29.47,South,180,15.0,19.5,27,0.00,,,0.00,WUHU216HW,2013-02-08 22:34:00,
2013-02-08 15:35:00,58.0,23.9,29.47,South,180,15.0,19.5,27,0.00,,,0.00,WUHU216HW,2013-02-08 22:35:00,
2013-02-08 15:37:00,58.0,24.9,29.47,South,180,13.0,19.2,28,0.00,,,0.00,WUHU216HW,2013-02-08 22:37:00,
2013-02-08 15:39:00,58.0,24.9,29.47,SSE,158,18.3,19.2,28,0.00,,,0.00,WUHU216HW,2013-02-08 22:39:00,
2013-02-08 15:40:00,58.0,24.9,29.47,SSE,158,17.2,18.3,28,0.00,,,0.00,WUHU216HW,2013-02-08 22:40:00,
2013-02-08 15:42:00,58.0,24.9,29.47,SSW,203,18.3,18.3,28,0.00,,,0.00,WUHU216HW,2013-02-08 22:42:00,
2013-02-08 15:44:00,57.8,24.7,29.47,SSE,158,11.4,18.3,28,0.00,,,0.00,WUHU216HW,2013-02-08 22:44:00,
2013-02-08 15:45:00,57.8,24.7,29.47,SE,135,15.0,18.3,28,0.00,,,0.00,WUHU216HW,2013-02-08 22:45:00,
2013-02-08 15:47:00,57.6,24.5,29.47,South,180,14.5,18.3,28,0.00,,,0.00,WUHU216HW,2013-02-08 22:47:00,
2013-02-08 15:49:00,57.8,24.7,29.47,SSE,158,15.0,18.3,28,0.00,,,0.00,WUHU216HW,2013-02-08 22:49:00,
2013-02-08 15:50:00,57.6,24.5,29.47,SSE,158,14.3,18.3,28,0.00,,,0.00,WUHU216HW,2013-02-08 22:50:00,
2013-02-08 15:51:00,57.6,24.5,29.47,SSE,158,14.3,18.3,28,0.00,,,0.00,WUHU216HW,2013-02-08 22:51:00,
2013-02-08 15:53:00,57.6,24.5,29.46,SSE,158,13.4,17.2,28,0.00,,,0.00,WUHU216HW,2013-02-08 22:53:00,
2013-02-08 15:54:00,57.4,24.4,29.46,South,180,13.9,17.2,28,0.00,,,0.00,WUHU216HW,2013-02-08 22:54:00,
2013-02-08 15:56:00,57.6,24.5,29.46,SE,135,9.2,17.2,28,0.00,,,0.00,WUHU216HW,2013-02-08 22:56:00,
2013-02-08 15:58:00,57.6,24.5,29.46,South,180,15.4,17.2,28,0.00,,,0.00,WUHU216HW,2013-02-08 22:58:00,
2013-02-08 16:00:00,57.6,24.5,29.46,SSW,203,10.5,16.3,28,0.00,,,0.00,WUHU216HW,2013-02-08 23:00:00,
2013-02-08 16:01:00,57.6,24.5,29.46,South,180,17.4,17.4,28,0.00,,,0.00,WUHU216HW,2013-02-08 23:01:00,
2013-02-08 16:03:00,57.6,24.5,29.46,South,180,19.2,24.4,28,0.00,,,0.00,WUHU216HW,2013-02-08 23:03:00,
2013-02-08 16:05:00,57.6,24.5,29.46,SE,135,21.0,24.4,28,0.00,,,0.00,WUHU216HW,2013-02-08 23:05:00,
2013-02-08 16:06:00,57.6,24.5,29.46,SSE,158,12.1,24.4,28,0.00,,,0.00,WUHU216HW,2013-02-08 23:06:00,
2013-02-08 16:08:00,57.6,24.5,29.46,SSE,158,12.5,24.4,28,0.00,,,0.00,WUHU216HW,2013-02-08 23:08:00,
2013-02-08 16:10:00,57.6,24.5,29.46,South,180,17.2,24.4,28,0.00,,,0.00,WUHU216HW,2013-02-08 23:10:00,
2013-02-08 16:11:00,57.6,24.5,29.46,SSE,158,20.8,24.4,28,0.00,,,0.00,WUHU216HW,2013-02-08 23:11:00,
2013-02-08 16:13:00,57.6,24.5,29.45,SSE,158,16.3,21.0,28,0.00,,,0.00,WUHU216HW,2013-02-08 23:13:00,
2013-02-08 16:15:00,57.6,24.5,29.45,SE,135,15.7,20.8,28,0.00,,,0.00,WUHU216HW,2013-02-08 23:15:00,
2013-02-08 16:16:00,57.6,24.5,29.45,South,180,13.9,20.8,28,0.00,,,0.00,WUHU216HW,2013-02-08 23:16:00,
2013-02-08 16:18:00,57.6,24.5,29.45,SSE,158,19.5,20.8,28,0.00,,,0.00,WUHU216HW,2013-02-08 23:18:00,
2013-02-08 16:20:00,57.4,24.4,29.45,SSE,158,15.0,20.8,28,0.00,,,0.00,WUHU216HW,2013-02-08 23:20:00,
2013-02-08 16:21:00,57.6,24.5,29.45,SSE,158,13.6,20.1,28,0.00,,,0.00,WUHU216HW,2013-02-08 23:21:00,
2013-02-08 16:23:00,57.6,24.5,29.45,South,180,11.4,19.5,28,0.00,,,0.00,WUHU216HW,2013-02-08 23:23:00,
2013-02-08 16:25:00,57.6,24.5,29.45,South,180,12.1,19.5,28,0.00,,,0.00,WUHU216HW,2013-02-08 23:25:00,
2013-02-08 16:26:00,57.6,24.5,29.45,SSW,203,15.7,19.5,28,0.00,,,0.00,WUHU216HW,2013-02-08 23:26:00,
2013-02-08 16:28:00,57.6,24.5,29.45,SSE,158,21.9,21.9,28,0.00,,,0.00,WUHU216HW,2013-02-08 23:28:00,
2013-02-08 16:30:00,57.4,24.4,29.45,SSE,158,16.3,21.9,28,0.00,,,0.00,WUHU216HW,2013-02-08 23:30:00,
2013-02-08 16:31:00,57.4,24.4,29.45,SSE,158,17.7,21.9,28,0.00,,,0.00,WUHU216HW,2013-02-08 23:31:00,
2013-02-08 16:33:00,57.4,24.4,29.45,SSW,203,12.3,21.9,28,0.00,,,0.00,WUHU216HW,2013-02-08 23:33:00,
2013-02-08 16:35:00,57.6,24.5,29.45,South,180,15.0,21.9,28,0.00,,,0.00,WUHU216HW,2013-02-08 23:35:00,
2013-02-08 16:36:00,57.6,24.5,29.45,South,180,17.4,21.9,28,0.00,,,0.00,WUHU216HW,2013-02-08 23:36:00,
2013-02-08 16:37:00,57.6,24.5,29.45,South,180,17.4,21.9,28,0.00,,,0.00,WUHU216HW,2013-02-08 23:37:00,
2013-02-08 16:38:00,57.4,24.4,29.45,SSE,158,13.0,18.3,28,0.00,,,0.00,WUHU216HW,2013-02-08 23:38:00,
2013-02-08 16:40:00,57.4,24.4,29.45,South,180,10.7,18.3,28,0.00,,,0.00,WUHU216HW,2013-02-08 23:40:00,
2013-02-08 16:41:00,57.4,24.4,29.45,SSE,158,15.9,18.3,28,0.00,,,0.00,WUHU216HW,2013-02-08 23:41:00,
2013-02-08 16:42:00,57.4,24.4,29.45,SSE,158,15.9,18.3,28,0.00,,,0.00,WUHU216HW,2013-02-08 23:42:00,
2013-02-08 16:43:00,57.4,24.4,29.45,South,180,12.1,18.3,28,0.00,,,0.00,WUHU216HW,2013-02-08 23:43:00,
2013-02-08 16:45:00,57.4,24.4,29.45,South,180,15.7,17.4,28,0.00,,,0.00,WUHU216HW,2013-02-08 23:45:00,
2013-02-08 16:46:00,57.4,24.4,29.45,South,180,10.7,16.6,28,0.00,,,0.00,WUHU216HW,2013-02-08 23:46:00,
2013-02-08 16:47:00,57.4,24.4,29.45,South,180,10.7,16.6,28,0.00,,,0.00,WUHU216HW,2013-02-08 23:47:00,
2013-02-08 16:48:00,57.4,24.4,29.44,SSW,203,15.2,20.1,28,0.00,,,0.00,WUHU216HW,2013-02-08 23:48:00,
2013-02-08 16:51:00,57.2,24.2,29.44,SSE,158,16.1,20.1,28,0.00,,,0.00,WUHU216HW,2013-02-08 23:51:00,
2013-02-08 16:52:00,57.4,24.4,29.44,SSE,158,13.2,20.1,28,0.00,,,0.00,WUHU216HW,2013-02-08 23:52:00,
2013-02-08 16:54:00,57.2,24.2,29.45,SSE,158,11.4,20.1,28,0.00,,,0.00,WUHU216HW,2013-02-08 23:54:00,
2013-02-08 16:56:00,57.2,24.2,29.44,SSW,203,10.3,20.1,28,0.00,,,0.00,WUHU216HW,2013-02-08 23:56:00,
2013-02-08 16:57:00,57.2,24.2,29.45,SSE,158,13.2,20.1,28,0.00,,,0.00,WUHU216HW,2013-02-08 23:57:00,
2013-02-08 16:59:00,57.2,24.2,29.45,South,180,15.2,18.3,28,0.00,,,0.00,WUHU216HW,2013-02-08 23:59:00,
2013-02-08 17:01:00,57.2,24.2,29.44,SSE,158,9.2,17.7,28,0.00,,,0.00,WUHU216HW,2013-02-09 00:01:00,
2013-02-08 17:02:00,57.2,24.2,29.45,South,180,15.0,17.7,28,0.00,,,0.00,WUHU216HW,2013-02-09 00:02:00,
2013-02-08 17:04:00,57.2,24.2,29.45,SSE,158,12.8,19.2,28,0.00,,,0.00,WUHU216HW,2013-02-09 00:04:00,
2013-02-08 17:06:00,57.1,24.0,29.45,SSE,158,13.6,19.2,28,0.00,,,0.00,WUHU216HW,2013-02-09 00:06:00,
2013-02-08 17:07:00,57.1,24.0,29.44,South,180,15.0,19.2,28,0.00,,,0.00,WUHU216HW,2013-02-09 00:07:00,
2013-02-08 17:09:00,57.1,24.0,29.44,SSE,158,9.8,19.2,28,0.00,,,0.00,WUHU216HW,2013-02-09 00:09:00,
2013-02-08 17:11:00,57.1,24.0,29.44,SE,135,13.0,19.2,28,0.00,,,0.00,WUHU216HW,2013-02-09 00:11:00,
2013-02-08 17:12:00,57.1,24.0,29.44,South,180,15.2,19.2,28,0.00,,,0.00,WUHU216HW,2013-02-09 00:12:00,
2013-02-08 17:15:00,57.1,24.0,29.44,SSE,158,11.9,15.9,28,0.00,,,0.00,WUHU216HW,2013-02-09 00:15:00,
2013-02-08 17:16:00,57.1,24.0,29.44,SSW,203,10.5,15.9,28,0.00,,,0.00,WUHU216HW,2013-02-09 00:16:00,
2013-02-08 17:17:00,56.9,23.9,29.44,SSE,158,12.1,15.9,28,0.00,,,0.00,WUHU216HW,2013-02-09 00:17:00,
2013-02-08 17:20:00,56.9,23.9,29.44,SSW,203,8.3,15.9,28,0.00,,,0.00,WUHU216HW,2013-02-09 00:20:00,
2013-02-08 17:21:00,56.9,23.9,29.44,South,180,11.9,15.2,28,0.00,,,0.00,WUHU216HW,2013-02-09 00:21:00,
2013-02-08 17:22:00,56.9,23.9,29.44,South,180,8.5,12.1,28,0.00,,,0.00,WUHU216HW,2013-02-09 00:22:00,
2013-02-08 17:23:00,56.9,23.9,29.44,South,180,8.5,12.1,28,0.00,,,0.00,WUHU216HW,2013-02-09 00:23:00,
2013-02-08 17:25:00,56.7,23.8,29.44,SE,135,15.4,15.4,28,0.00,,,0.00,WUHU216HW,2013-02-09 00:25:00,
2013-02-08 17:26:00,56.7,23.8,29.44,SSE,158,8.7,15.4,28,0.00,,,0.00,WUHU216HW,2013-02-09 00:26:00,
2013-02-08 17:28:00,56.7,23.8,29.44,SSW,203,11.4,15.4,28,0.00,,,0.00,WUHU216HW,2013-02-09 00:28:00,
2013-02-08 17:30:00,56.7,23.8,29.44,South,180,12.8,15.4,28,0.00,,,0.00,WUHU216HW,2013-02-09 00:30:00,
2013-02-08 17:31:00,56.7,23.8,29.44,South,180,9.4,15.4,28,0.00,,,0.00,WUHU216HW,2013-02-09 00:31:00,
2013-02-08 17:33:00,56.5,23.6,29.44,South,180,9.4,15.4,28,0.00,,,0.00,WUHU216HW,2013-02-09 00:33:00,
2013-02-08 17:35:00,56.5,23.6,29.44,South,180,8.7,12.8,28,0.00,,,0.00,WUHU216HW,2013-02-09 00:35:00,
2013-02-08 17:37:00,56.5,23.6,29.44,SSE,158,12.1,12.8,28,0.00,,,0.00,WUHU216HW,2013-02-09 00:37:00,
2013-02-08 17:38:00,56.5,23.6,29.44,SSE,158,12.8,12.8,28,0.00,,,0.00,WUHU216HW,2013-02-09 00:38:00,
2013-02-08 17:40:00,56.5,23.6,29.44,SSE,158,12.1,13.4,28,0.00,,,0.00,WUHU216HW,2013-02-09 00:40:00,
2013-02-08 17:42:00,56.5,23.6,29.44,South,180,11.6,13.4,28,0.00,,,0.00,WUHU216HW,2013-02-09 00:42:00,
2013-02-08 17:43:00,56.5,23.6,29.44,SSE,158,11.0,13.4,28,0.00,,,0.00,WUHU216HW,2013-02-09 00:43:00,
2013-02-08 17:45:00,56.5,23.6,29.44,SSE,158,13.4,15.0,28,0.00,,,0.00,WUHU216HW,2013-02-09 00:45:00,
2013-02-08 17:47:00,56.5,23.6,29.44,South,180,10.3,15.0,28,0.00,,,0.00,WUHU216HW,2013-02-09 00:47:00,
2013-02-08 17:48:00,56.5,23.6,29.45,South,180,11.6,15.0,28,0.00,,,0.00,WUHU216HW,2013-02-09 00:48:00,
2013-02-08 17:50:00,56.3,23.4,29.44,SSW,203,11.6,15.2,28,0.00,,,0.00,WUHU216HW,2013-02-09 00:50:00,
2013-02-08 17:52:00,56.3,23.4,29.44,SSE,158,13.0,15.2,28,0.00,,,0.00,WUHU216HW,2013-02-09 00:52:00,
2013-02-08 17:53:00,56.3,23.4,29.44,South,180,16.1,16.1,28,0.00,,,0.00,WUHU216HW,2013-02-09 00:53:00,
2013-02-08 17:56:00,56.3,23.4,29.44,South,180,14.3,16.1,28,0.00,,,0.00,WUHU216HW,2013-02-09 00:56:00,
2013-02-08 17:58:00,56.3,23.4,29.44,SSE,158,15.0,16.1,28,0.00,,,0.00,WUHU216HW,2013-02-09 00:58:00,
2013-02-08 18:01:00,56.2,23.2,29.44,SSE,158,11.4,16.1,28,0.00,,,0.00,WUHU216HW,2013-02-09 01:01:00,
2013-02-08 18:03:00,56.2,23.2,29.44,SSE,158,8.7,15.0,28,0.00,,,0.00,WUHU216HW,2013-02-09 01:03:00,
2013-02-08 18:06:00,56.2,23.2,29.44,SSE,158,10.7,17.2,28,0.00,,,0.00,WUHU216HW,2013-02-09 01:06:00,
2013-02-08 18:08:00,56.2,23.2,29.44,SSE,158,11.9,17.2,28,0.00,,,0.00,WUHU216HW,2013-02-09 01:08:00,
2013-02-08 18:11:00,56.0,23.0,29.44,South,180,15.7,17.2,28,0.00,,,0.00,WUHU216HW,2013-02-09 01:11:00,
2013-02-08 18:13:00,56.0,23.0,29.44,SSE,158,12.1,15.7,28,0.00,,,0.00,WUHU216HW,2013-02-09 01:13:00,
2013-02-08 18:14:00,56.0,23.0,29.44,SSE,158,12.1,15.7,28,0.00,,,0.00,WUHU216HW,2013-02-09 01:14:00,
2013-02-08 18:16:00,56.0,23.0,29.44,SSE,158,13.6,15.7,28,0.00,,,0.00,WUHU216HW,2013-02-09 01:16:00,
2013-02-08 18:18:00,55.8,23.0,29.44,SSE,158,11.6,15.7,28,0.00,,,0.00,WUHU216HW,2013-02-09 01:18:00,
2013-02-08 18:19:00,55.8,23.0,29.44,SSE,158,11.6,15.7,28,0.00,,,0.00,WUHU216HW,2013-02-09 01:19:00,
2013-02-08 18:21:00,55.8,23.0,29.45,South,180,13.6,13.6,28,0.00,,,0.00,WUHU216HW,2013-02-09 01:21:00,
2013-02-08 18:23:00,55.8,23.0,29.44,South,180,11.9,13.6,28,0.00,,,0.00,WUHU216HW,2013-02-09 01:23:00,
2013-02-08 18:24:00,55.8,23.0,29.44,South,180,11.9,13.6,28,0.00,,,0.00,WUHU216HW,2013-02-09 01:24:00,
2013-02-08 18:27:00,55.8,23.0,29.44,South,180,15.7,15.7,28,0.00,,,0.00,WUHU216HW,2013-02-09 01:27:00,
2013-02-08 18:29:00,55.8,23.0,29.45,SSE,158,13.2,15.7,28,0.00,,,0.00,WUHU216HW,2013-02-09 01:29:00,
2013-02-08 18:32:00,55.8,23.0,29.45,South,180,11.4,15.7,28,0.00,,,0.00,WUHU216HW,2013-02-09 01:32:00,
2013-02-08 18:34:00,55.6,22.8,29.45,South,180,12.1,15.7,28,0.00,,,0.00,WUHU216HW,2013-02-09 01:34:00,
2013-02-08 18:37:00,55.6,22.8,29.45,SSE,158,15.0,15.0,28,0.00,,,0.00,WUHU216HW,2013-02-09 01:37:00,
2013-02-08 18:39:00,55.6,22.8,29.44,SSE,158,16.3,16.3,28,0.00,,,0.00,WUHU216HW,2013-02-09 01:39:00,
2013-02-08 18:42:00,55.6,22.8,29.45,South,180,8.5,16.3,28,0.00,,,0.00,WUHU216HW,2013-02-09 01:42:00,
2013-02-08 18:44:00,55.4,22.6,29.45,SSE,158,8.7,16.3,28,0.00,,,0.00,WUHU216HW,2013-02-09 01:44:00,
2013-02-08 18:47:00,55.4,22.6,29.45,South,180,9.8,16.3,28,0.00,,,0.00,WUHU216HW,2013-02-09 01:47:00,
2013-02-08 18:49:00,55.4,22.6,29.45,SSW,203,10.3,14.1,28,0.00,,,0.00,WUHU216HW,2013-02-09 01:49:00,
2013-02-08 18:52:00,55.4,22.6,29.45,SSE,158,11.6,15.0,28,0.00,,,0.00,WUHU216HW,2013-02-09 01:52:00,
2013-02-08 18:54:00,55.3,22.5,29.45,SSW,203,11.0,15.0,28,0.00,,,0.00,WUHU216HW,2013-02-09 01:54:00,
2013-02-08 18:55:00,55.3,22.5,29.45,South,180,11.6,15.0,28,0.00,,,0.00,WUHU216HW,2013-02-09 01:55:00,
2013-02-08 18:57:00,55.3,22.5,29.45,SE,135,14.1,15.0,28,0.00,,,0.00,WUHU216HW,2013-02-09 01:57:00,
2013-02-08 18:59:00,55.3,22.5,29.45,South,180,11.9,15.0,28,0.00,,,0.00,WUHU216HW,2013-02-09 01:59:00,
2013-02-08 19:00:00,55.1,22.3,29.45,South,180,11.4,15.0,28,0.00,,,0.00,WUHU216HW,2013-02-09 02:00:00,
2013-02-08 19:02:00,55.1,23.2,29.45,South,180,12.3,15.7,29,0.00,,,0.00,WUHU216HW,2013-02-09 02:02:00,
2013-02-08 19:04:00,55.1,23.2,29.45,South,180,11.4,15.7,29,0.00,,,0.00,WUHU216HW,2013-02-09 02:04:00,
2013-02-08 19:05:00,55.1,23.2,29.45,SSW,203,8.9,15.7,29,0.00,,,0.00,WUHU216HW,2013-02-09 02:05:00,
2013-02-08 19:07:00,55.1,23.2,29.45,SSW,203,12.1,15.7,29,0.00,,,0.00,WUHU216HW,2013-02-09 02:07:00,
2013-02-08 19:09:00,55.1,23.2,29.45,SSW,203,5.4,15.7,29,0.00,,,0.00,WUHU216HW,2013-02-09 02:09:00,
2013-02-08 19:10:00,55.1,23.2,29.45,South,180,9.8,15.7,29,0.00,,,0.00,WUHU216HW,2013-02-09 02:10:00,
2013-02-08 19:11:00,55.1,23.2,29.45,South,180,9.8,15.7,29,0.00,,,0.00,WUHU216HW,2013-02-09 02:11:00,
2013-02-08 19:13:00,54.9,23.1,29.45,South,180,7.2,12.1,29,0.00,,,0.00,WUHU216HW,2013-02-09 02:13:00,
2013-02-08 19:14:00,54.9,23.1,29.45,SSE,158,7.4,12.1,29,0.00,,,0.00,WUHU216HW,2013-02-09 02:14:00,
2013-02-08 19:15:00,54.9,23.1,29.45,SSW,203,9.6,12.1,29,0.00,,,0.00,WUHU216HW,2013-02-09 02:15:00,
2013-02-08 19:16:00,54.9,23.1,29.45,SSW,203,9.6,12.1,29,0.00,,,0.00,WUHU216HW,2013-02-09 02:16:00,
2013-02-08 19:18:00,54.9,23.1,29.46,SSW,203,8.3,9.8,29,0.00,,,0.00,WUHU216HW,2013-02-09 02:18:00,
2013-02-08 19:20:00,54.7,23.0,29.46,SSW,203,9.8,9.8,29,0.00,,,0.00,WUHU216HW,2013-02-09 02:20:00,
2013-02-08 19:21:00,54.7,23.0,29.46,SSE,158,8.7,9.8,29,0.00,,,0.00,WUHU216HW,2013-02-09 02:21:00,
2013-02-08 19:23:00,54.7,23.0,29.46,South,180,6.5,9.8,29,0.00,,,0.00,WUHU216HW,2013-02-09 02:23:00,
2013-02-08 19:25:00,54.5,22.9,29.46,SSW,203,6.9,9.8,29,0.00,,,0.00,WUHU216HW,2013-02-09 02:25:00,
2013-02-08 19:26:00,54.5,22.9,29.46,SSE,158,8.1,9.8,29,0.00,,,0.00,WUHU216HW,2013-02-09 02:26:00,
2013-02-08 19:28:00,54.5,22.9,29.46,SSW,203,6.9,9.8,29,0.00,,,0.00,WUHU216HW,2013-02-09 02:28:00,
2013-02-08 19:30:00,54.4,23.6,29.46,SSW,203,9.8,9.8,30,0.00,,,0.00,WUHU216HW,2013-02-09 02:30:00,
2013-02-08 19:31:00,54.4,23.6,29.46,SSE,158,11.2,11.2,30,0.00,,,0.00,WUHU216HW,2013-02-09 02:31:00,
2013-02-08 19:33:00,54.4,23.6,29.46,South,180,9.2,11.2,30,0.00,,,0.00,WUHU216HW,2013-02-09 02:33:00,
2013-02-08 19:35:00,54.4,23.6,29.46,SSW,203,9.2,11.2,30,0.00,,,0.00,WUHU216HW,2013-02-09 02:35:00,
2013-02-08 19:36:00,54.4,23.6,29.46,SSW,203,7.8,11.2,30,0.00,,,0.00,WUHU216HW,2013-02-09 02:36:00,
2013-02-08 19:38:00,54.4,23.6,29.46,SSW,203,9.2,11.2,30,0.00,,,0.00,WUHU216HW,2013-02-09 02:38:00,
2013-02-08 19:40:00,54.4,23.6,29.46,SSW,203,6.7,11.2,30,0.00,,,0.00,WUHU216HW,2013-02-09 02:40:00,
2013-02-08 19:41:00,54.2,23.5,29.46,SSW,203,7.2,9.2,30,0.00,,,0.00,WUHU216HW,2013-02-09 02:41:00,
2013-02-08 19:43:00,54.2,23.5,29.46,SSW,203,6.7,9.2,30,0.00,,,0.00,WUHU216HW,2013-02-09 02:43:00,
2013-02-08 19:45:00,54.0,23.3,29.46,SSW,203,7.2,9.2,30,0.00,,,0.00,WUHU216HW,2013-02-09 02:45:00,
2013-02-08 19:46:00,54.0,23.3,29.46,SSW,203,4.9,9.2,30,0.00,,,0.00,WUHU216HW,2013-02-09 02:46:00,
2013-02-08 19:48:00,54.0,23.3,29.46,South,180,9.2,9.2,30,0.00,,,0.00,WUHU216HW,2013-02-09 02:48:00,
2013-02-08 19:51:00,54.0,23.3,29.46,SSW,203,5.1,9.2,30,0.00,,,0.00,WUHU216HW,2013-02-09 02:51:00,
2013-02-08 19:52:00,54.0,23.3,29.46,SSW,203,7.8,9.2,30,0.00,,,0.00,WUHU216HW,2013-02-09 02:52:00,
2013-02-08 19:53:00,53.8,23.2,29.46,SSW,203,7.2,9.2,30,0.00,,,0.00,WUHU216HW,2013-02-09 02:53:00,
2013-02-08 19:56:00,53.8,23.9,29.46,SSW,203,7.8,9.2,31,0.00,,,0.00,WUHU216HW,2013-02-09 02:56:00,
2013-02-08 19:57:00,53.8,23.9,29.46,SSW,203,5.6,9.2,31,0.00,,,0.00,WUHU216HW,2013-02-09 02:57:00,
2013-02-08 19:58:00,53.6,23.8,29.46,SSW,203,5.8,7.8,31,0.00,,,0.00,WUHU216HW,2013-02-09 02:58:00,
2013-02-08 20:01:00,53.6,23.8,29.46,SSW,203,6.0,7.8,31,0.00,,,0.00,WUHU216HW,2013-02-09 03:01:00,
2013-02-08 20:02:00,53.6,23.8,29.46,SSW,203,6.9,7.8,31,0.00,,,0.00,WUHU216HW,2013-02-09 03:02:00,
2013-02-08 20:04:00,53.5,23.6,29.46,SW,225,6.3,7.8,31,0.00,,,0.00,WUHU216HW,2013-02-09 03:04:00,
2013-02-08 20:06:00,53.5,23.6,29.46,SSW,203,5.4,6.9,31,0.00,,,0.00,WUHU216HW,2013-02-09 03:06:00,
2013-02-08 20:07:00,53.5,23.6,29.46,SW,225,7.2,7.2,31,0.00,,,0.00,WUHU216HW,2013-02-09 03:07:00,
2013-02-08 20:09:00,53.3,23.4,29.46,South,180,6.0,7.2,31,0.00,,,0.00,WUHU216HW,2013-02-09 03:09:00,
2013-02-08 20:11:00,53.3,23.4,29.46,SSW,203,5.1,7.2,31,0.00,,,0.00,WUHU216HW,2013-02-09 03:11:00,
2013-02-08 20:12:00,53.3,23.4,29.46,SSW,203,6.3,7.2,31,0.00,,,0.00,WUHU216HW,2013-02-09 03:12:00,
2013-02-08 20:14:00,53.3,23.4,29.46,South,180,6.7,7.2,31,0.00,,,0.00,WUHU216HW,2013-02-09 03:14:00,
2013-02-08 20:16:00,53.1,23.2,29.46,SSW,203,6.5,7.2,31,0.00,,,0.00,WUHU216HW,2013-02-09 03:16:00,
2013-02-08 20:17:00,52.9,23.0,29.46,SSW,203,4.0,6.7,31,0.00,,,0.00,WUHU216HW,2013-02-09 03:17:00,
2013-02-08 20:20:00,52.9,23.0,29.46,SSW,203,5.4,6.7,31,0.00,,,0.00,WUHU216HW,2013-02-09 03:20:00,
2013-02-08 20:21:00,52.9,23.0,29.46,SW,225,3.4,6.7,31,0.00,,,0.00,WUHU216HW,2013-02-09 03:21:00,
2013-02-08 20:22:00,52.9,23.0,29.46,SW,225,3.4,6.7,31,0.00,,,0.00,WUHU216HW,2013-02-09 03:22:00,
2013-02-08 20:25:00,52.7,23.0,29.46,WSW,248,3.6,6.5,31,0.00,,,0.00,WUHU216HW,2013-02-09 03:25:00,
2013-02-08 20:27:00,52.6,22.8,29.46,WSW,248,2.5,5.6,31,0.00,,,0.00,WUHU216HW,2013-02-09 03:27:00,
2013-02-08 20:30:00,52.4,22.6,29.46,WSW,248,2.7,5.6,31,0.00,,,0.00,WUHU216HW,2013-02-09 03:30:00,
2013-02-08 20:32:00,52.2,22.4,29.46,WSW,248,2.9,3.6,31,0.00,,,0.00,WUHU216HW,2013-02-09 03:32:00,
2013-02-08 20:35:00,52.2,22.4,29.46,WSW,248,2.2,3.4,31,0.00,,,0.00,WUHU216HW,2013-02-09 03:35:00,
2013-02-08 20:37:00,52.2,22.4,29.46,WSW,248,2.9,3.4,31,0.00,,,0.00,WUHU216HW,2013-02-09 03:37:00,
2013-02-08 20:40:00,52.2,22.4,29.46,WSW,248,2.5,3.4,31,0.00,,,0.00,WUHU216HW,2013-02-09 03:40:00,
2013-02-08 20:42:00,52.0,22.2,29.46,WSW,248,2.5,3.1,31,0.00,,,0.00,WUHU216HW,2013-02-09 03:42:00,
2013-02-08 20:45:00,52.0,22.2,29.46,WSW,248,2.9,3.4,31,0.00,,,0.00,WUHU216HW,2013-02-09 03:45:00,
2013-02-08 20:47:00,52.0,22.2,29.46,WSW,248,3.4,3.4,31,0.00,,,0.00,WUHU216HW,2013-02-09 03:47:00,
2013-02-08 20:50:00,52.0,22.2,29.46,WSW,248,2.9,3.4,31,0.00,,,0.00,WUHU216HW,2013-02-09 03:50:00,
2013-02-08 20:52:00,51.8,22.2,29.45,WSW,248,2.5,3.4,31,0.00,,,0.00,WUHU216HW,2013-02-09 03:52:00,
2013-02-08 20:53:00,51.8,22.2,29.45,WSW,248,2.5,3.4,31,0.00,,,0.00,WUHU216HW,2013-02-09 03:53:00,
2013-02-08 20:55:00,51.8,22.2,29.45,WSW,248,2.7,3.4,31,0.00,,,0.00,WUHU216HW,2013-02-09 03:55:00,
2013-02-08 20:57:00,51.7,22.0,29.45,WSW,248,2.2,2.9,31,0.00,,,0.00,WUHU216HW,2013-02-09 03:57:00,
2013-02-08 20:58:00,51.7,22.0,29.45,WSW,248,2.2,2.9,31,0.00,,,0.00,WUHU216HW,2013-02-09 03:58:00,
2013-02-08 21:00:00,51.7,22.0,29.46,SW,225,2.2,2.7,31,0.00,,,0.00,WUHU216HW,2013-02-09 04:00:00,
2013-02-08 21:02:00,51.5,21.8,29.45,WSW,248,2.5,2.7,31,0.00,,,0.00,WUHU216HW,2013-02-09 04:02:00,
2013-02-08 21:03:00,51.5,21.8,29.45,WSW,248,2.9,2.9,31,0.00,,,0.00,WUHU216HW,2013-02-09 04:03:00,
2013-02-08 21:05:00,51.5,21.8,29.45,WSW,248,2.7,2.9,31,0.00,,,0.00,WUHU216HW,2013-02-09 04:05:00,
2013-02-08 21:07:00,51.5,21.8,29.45,West,270,2.5,2.9,31,0.00,,,0.00,WUHU216HW,2013-02-09 04:07:00,
2013-02-08 21:08:00,51.5,21.8,29.45,West,270,2.9,2.9,31,0.00,,,0.00,WUHU216HW,2013-02-09 04:08:00,
2013-02-08 21:10:00,51.3,21.6,29.45,West,270,2.7,2.9,31,0.00,,,0.00,WUHU216HW,2013-02-09 04:10:00,
2013-02-08 21:12:00,51.3,21.6,29.45,West,270,2.5,2.9,31,0.00,,,0.00,WUHU216HW,2013-02-09 04:12:00,
2013-02-08 21:13:00,51.3,21.6,29.45,West,270,2.5,2.9,31,0.00,,,0.00,WUHU216HW,2013-02-09 04:13:00,
2013-02-08 21:16:00,51.1,21.4,29.45,WNW,293,1.8,2.9,31,0.00,,,0.00,WUHU216HW,2013-02-09 04:16:00,
2013-02-08 21:17:00,50.9,21.3,29.45,West,270,2.5,2.9,31,0.00,,,0.00,WUHU216HW,2013-02-09 04:17:00,
2013-02-08 21:18:00,50.9,21.3,29.45,West,270,2.5,2.9,31,0.00,,,0.00,WUHU216HW,2013-02-09 04:18:00,
2013-02-08 21:21:00,50.8,21.8,29.45,WNW,293,1.1,2.5,32,0.00,,,0.00,WUHU216HW,2013-02-09 04:21:00,
2013-02-08 21:22:00,50.8,21.2,29.44,West,270,2.2,2.5,31,0.00,,,0.00,WUHU216HW,2013-02-09 04:22:00,
2013-02-08 21:23:00,50.8,21.2,29.44,West,270,2.2,2.5,31,0.00,,,0.00,WUHU216HW,2013-02-09 04:23:00,
2013-02-08 21:26:00,50.4,21.5,29.44,West,270,1.3,2.5,32,0.00,,,0.00,WUHU216HW,2013-02-09 04:26:00,
2013-02-08 21:28:00,50.4,21.5,29.44,West,270,1.3,2.5,32,0.00,,,0.00,WUHU216HW,2013-02-09 04:28:00,
2013-02-08 21:31:00,50.4,21.5,29.44,NW,315,1.8,2.5,32,0.00,,,0.00,WUHU216HW,2013-02-09 04:31:00,
2013-02-08 21:33:00,50.2,21.3,29.44,WNW,293,0.7,2.5,32,0.00,,,0.00,WUHU216HW,2013-02-09 04:33:00,
2013-02-08 21:36:00,50.0,21.2,29.44,West,270,2.5,2.7,32,0.00,,,0.00,WUHU216HW,2013-02-09 04:36:00,
2013-02-08 21:38:00,50.0,21.2,29.44,NW,315,2.0,2.7,32,0.00,,,0.00,WUHU216HW,2013-02-09 04:38:00,
2013-02-08 21:39:00,50.0,21.2,29.44,NW,315,2.5,2.7,32,0.00,,,0.00,WUHU216HW,2013-02-09 04:39:00,
2013-02-08 21:41:00,49.9,21.1,29.44,West,270,1.3,2.7,32,0.00,,,0.00,WUHU216HW,2013-02-09 04:41:00,
2013-02-08 21:43:00,49.9,21.1,29.44,West,270,1.1,2.7,32,0.00,,,0.00,WUHU216HW,2013-02-09 04:43:00,
2013-02-08 21:44:00,49.9,21.1,29.44,NW,315,0.7,2.7,32,0.00,,,0.00,WUHU216HW,2013-02-09 04:44:00,
2013-02-08 21:47:00,49.7,20.9,29.44,West,270,1.8,2.7,32,0.00,,,0.00,WUHU216HW,2013-02-09 04:47:00,
2013-02-08 21:48:00,49.7,20.9,29.44,WNW,293,2.2,2.7,32,0.00,,,0.00,WUHU216HW,2013-02-09 04:48:00,
2013-02-08 21:49:00,49.7,20.9,29.44,WNW,293,1.8,2.7,32,0.00,,,0.00,WUHU216HW,2013-02-09 04:49:00,
2013-02-08 21:52:00,49.5,20.7,29.44,West,270,0.9,2.2,32,0.00,,,0.00,WUHU216HW,2013-02-09 04:52:00,
2013-02-08 21:53:00,49.5,20.7,29.44,West,270,2.9,2.9,32,0.00,,,0.00,WUHU216HW,2013-02-09 04:53:00,
2013-02-08 21:54:00,49.3,20.6,29.44,West,270,2.0,2.9,32,0.00,,,0.00,WUHU216HW,2013-02-09 04:54:00,
2013-02-08 21:57:00,49.3,20.6,29.44,WNW,293,1.8,2.9,32,0.00,,,0.00,WUHU216HW,2013-02-09 04:57:00,
2013-02-08 21:58:00,49.3,20.6,29.44,West,270,2.0,2.9,32,0.00,,,0.00,WUHU216HW,2013-02-09 04:58:00,
2013-02-08 21:59:00,49.3,20.6,29.44,West,270,2.5,2.9,32,0.00,,,0.00,WUHU216HW,2013-02-09 04:59:00,
2013-02-08 22:00:00,49.1,20.4,29.44,WNW,293,2.5,2.9,32,0.00,,,0.00,WUHU216HW,2013-02-09 05:00:00,
2013-02-08 22:01:00,49.1,20.4,29.44,West,270,1.3,2.9,32,0.00,,,0.00,WUHU216HW,2013-02-09 05:01:00,
2013-02-08 22:05:00,49.0,20.3,29.44,WNW,293,2.0,2.5,32,0.00,,,0.00,WUHU216HW,2013-02-09 05:05:00,
2013-02-08 22:06:00,49.0,20.3,29.44,WNW,293,2.2,2.5,32,0.00,,,0.00,WUHU216HW,2013-02-09 05:06:00,
2013-02-08 22:10:00,48.6,20.0,29.44,West,270,1.8,2.5,32,0.00,,,0.00,WUHU216HW,2013-02-09 05:10:00,
2013-02-08 22:11:00,48.6,20.0,29.44,West,270,1.8,2.5,32,0.00,,,0.00,WUHU216HW,2013-02-09 05:11:00,
2013-02-08 22:15:00,48.4,19.8,29.44,West,270,1.8,2.5,32,0.00,,,0.00,WUHU216HW,2013-02-09 05:15:00,
2013-02-08 22:16:00,48.4,19.8,29.44,West,270,2.0,2.5,32,0.00,,,0.00,WUHU216HW,2013-02-09 05:16:00,
2013-02-08 22:20:00,48.2,20.3,29.44,WNW,293,1.8,2.5,33,0.00,,,0.00,WUHU216HW,2013-02-09 05:20:00,
2013-02-08 22:22:00,48.2,20.3,29.44,West,270,1.3,2.5,33,0.00,,,0.00,WUHU216HW,2013-02-09 05:22:00,
2013-02-08 22:25:00,48.1,20.2,29.44,West,270,1.8,2.5,33,0.00,,,0.00,WUHU216HW,2013-02-09 05:25:00,
2013-02-08 22:26:00,48.1,20.2,29.44,West,270,1.8,2.5,33,0.00,,,0.00,WUHU216HW,2013-02-09 05:26:00,
2013-02-08 22:27:00,47.9,20.1,29.44,WNW,293,2.7,3.1,33,0.00,,,0.00,WUHU216HW,2013-02-09 05:27:00,
2013-02-08 22:30:00,47.9,20.1,29.44,WNW,293,2.2,3.6,33,0.00,,,0.00,WUHU216HW,2013-02-09 05:30:00,
2013-02-08 22:31:00,47.9,20.1,29.44,WNW,293,2.2,3.6,33,0.00,,,0.00,WUHU216HW,2013-02-09 05:31:00,
2013-02-08 22:32:00,47.7,19.9,29.43,West,270,2.9,3.6,33,0.00,,,0.00,WUHU216HW,2013-02-09 05:32:00,
2013-02-08 22:35:00,47.7,19.9,29.43,WSW,248,3.6,3.6,33,0.00,,,0.00,WUHU216HW,2013-02-09 05:35:00,
2013-02-08 22:36:00,47.7,19.9,29.43,WSW,248,3.6,3.6,33,0.00,,,0.00,WUHU216HW,2013-02-09 05:36:00,
2013-02-08 22:37:00,47.7,19.9,29.43,WSW,248,3.1,3.6,33,0.00,,,0.00,WUHU216HW,2013-02-09 05:37:00,
2013-02-08 22:40:00,47.7,19.9,29.43,SW,225,3.4,4.0,33,0.00,,,0.00,WUHU216HW,2013-02-09 05:40:00,
2013-02-08 22:41:00,47.7,19.9,29.43,SW,225,3.4,4.0,33,0.00,,,0.00,WUHU216HW,2013-02-09 05:41:00,
2013-02-08 22:42:00,47.7,19.9,29.43,WSW,248,1.8,4.0,33,0.00,,,0.00,WUHU216HW,2013-02-09 05:42:00,
2013-02-08 22:45:00,47.7,19.9,29.43,WSW,248,1.8,4.0,33,0.00,,,0.00,WUHU216HW,2013-02-09 05:45:00,
2013-02-08 22:46:00,47.7,19.9,29.43,WSW,248,1.8,4.0,33,0.00,,,0.00,WUHU216HW,2013-02-09 05:46:00,
2013-02-08 22:47:00,47.7,19.9,29.43,WSW,248,2.5,4.0,33,0.00,,,0.00,WUHU216HW,2013-02-09 05:47:00,
2013-02-08 22:50:00,47.7,19.9,29.43,WSW,248,2.5,3.6,33,0.00,,,0.00,WUHU216HW,2013-02-09 05:50:00,
2013-02-08 22:51:00,47.7,19.9,29.43,WSW,248,2.5,3.6,33,0.00,,,0.00,WUHU216HW,2013-02-09 05:51:00,
2013-02-08 22:52:00,47.7,19.9,29.43,WSW,248,2.5,3.6,33,0.00,,,0.00,WUHU216HW,2013-02-09 05:52:00,
2013-02-08 22:55:00,47.5,19.7,29.43,WSW,248,4.0,4.0,33,0.00,,,0.00,WUHU216HW,2013-02-09 05:55:00,
2013-02-08 22:56:00,47.5,19.7,29.43,WSW,248,4.0,4.0,33,0.00,,,0.00,WUHU216HW,2013-02-09 05:56:00,
2013-02-08 22:57:00,47.5,19.7,29.43,SW,225,3.4,4.0,33,0.00,,,0.00,WUHU216HW,2013-02-09 05:57:00,
2013-02-08 23:01:00,47.5,19.7,29.43,SW,225,3.4,4.5,33,0.00,,,0.00,WUHU216HW,2013-02-09 06:01:00,
2013-02-08 23:02:00,47.3,20.3,29.43,SSW,203,2.9,4.5,34,0.00,,,0.00,WUHU216HW,2013-02-09 06:02:00,
2013-02-08 23:06:00,47.3,19.5,29.43,SW,225,2.5,4.5,33,0.00,,,0.00,WUHU216HW,2013-02-09 06:06:00,
2013-02-08 23:07:00,47.3,19.5,29.43,SW,225,2.5,4.5,33,0.00,,,0.00,WUHU216HW,2013-02-09 06:07:00,
2013-02-08 23:08:00,47.3,20.3,29.42,SSW,203,2.2,3.8,34,0.00,,,0.00,WUHU216HW,2013-02-09 06:08:00,
2013-02-08 23:11:00,47.3,20.3,29.42,SW,225,3.8,3.8,34,0.00,,,0.00,WUHU216HW,2013-02-09 06:11:00,
2013-02-08 23:12:00,47.3,20.3,29.42,SW,225,3.1,3.8,34,0.00,,,0.00,WUHU216HW,2013-02-09 06:12:00,
2013-02-08 23:13:00,47.2,20.1,29.42,SW,225,2.2,3.8,34,0.00,,,0.00,WUHU216HW,2013-02-09 06:13:00,
2013-02-08 23:16:00,47.2,20.1,29.43,SW,225,1.8,3.8,34,0.00,,,0.00,WUHU216HW,2013-02-09 06:16:00,
2013-02-08 23:17:00,47.2,20.1,29.42,SW,225,2.2,3.8,34,0.00,,,0.00,WUHU216HW,2013-02-09 06:17:00,
2013-02-08 23:18:00,47.2,20.1,29.42,SW,225,2.5,3.8,34,0.00,,,0.00,WUHU216HW,2013-02-09 06:18:00,
2013-02-08 23:21:00,47.2,20.1,29.42,WSW,248,3.4,3.6,34,0.00,,,0.00,WUHU216HW,2013-02-09 06:21:00,
2013-02-08 23:22:00,47.2,20.1,29.43,WSW,248,2.9,3.6,34,0.00,,,0.00,WUHU216HW,2013-02-09 06:22:00,
2013-02-08 23:24:00,47.2,20.1,29.42,WSW,248,2.5,3.6,34,0.00,,,0.00,WUHU216HW,2013-02-09 06:24:00,
2013-02-08 23:26:00,47.2,20.1,29.42,WSW,248,1.8,3.6,34,0.00,,,0.00,WUHU216HW,2013-02-09 06:26:00,
2013-02-08 23:27:00,47.2,20.1,29.42,SW,225,2.5,3.6,34,0.00,,,0.00,WUHU216HW,2013-02-09 06:27:00,
2013-02-08 23:29:00,47.2,20.1,29.42,WSW,248,1.3,3.6,34,0.00,,,0.00,WUHU216HW,2013-02-09 06:29:00,
2013-02-08 23:31:00,47.2,20.1,29.42,SW,225,2.0,2.9,34,0.00,,,0.00,WUHU216HW,2013-02-09 06:31:00,
2013-02-08 23:32:00,47.2,20.1,29.42,WSW,248,2.0,2.5,34,0.00,,,0.00,WUHU216HW,2013-02-09 06:32:00,
2013-02-08 23:34:00,47.2,20.1,29.42,WSW,248,2.5,2.5,34,0.00,,,0.00,WUHU216HW,2013-02-09 06:34:00,
2013-02-08 23:37:00,47.2,20.1,29.42,WSW,248,2.5,2.5,34,0.00,,,0.00,WUHU216HW,2013-02-09 06:37:00,
2013-02-08 23:39:00,47.2,20.1,29.42,WSW,248,1.6,2.5,34,0.00,,,0.00,WUHU216HW,2013-02-09 06:39:00,
2013-02-08 23:42:00,47.2,20.1,29.41,SW,225,1.6,3.4,34,0.00,,,0.00,WUHU216HW,2013-02-09 06:42:00,
2013-02-08 23:43:00,47.2,20.1,29.41,SW,225,1.6,3.4,34,0.00,,,0.00,WUHU216HW,2013-02-09 06:43:00,
2013-02-08 23:44:00,47.2,20.1,29.42,SW,225,2.5,3.4,34,0.00,,,0.00,WUHU216HW,2013-02-09 06:44:00,
2013-02-08 23:47:00,47.2,20.1,29.41,WSW,248,1.8,3.4,34,0.00,,,0.00,WUHU216HW,2013-02-09 06:47:00,
2013-02-08 23:48:00,47.2,20.1,29.41,WSW,248,2.5,3.4,34,0.00,,,0.00,WUHU216HW,2013-02-09 06:48:00,
2013-02-08 23:50:00,47.2,20.1,29.41,WSW,248,1.1,3.4,34,0.00,,,0.00,WUHU216HW,2013-02-09 06:50:00,
2013-02-08 23:52:00,47.2,20.1,29.41,WSW,248,1.3,2.5,34,0.00,,,0.00,WUHU216HW,2013-02-09 06:52:00,
2013-02-08 23:53:00,47.2,20.1,29.41,SW,225,1.3,2.5,34,0.00,,,0.00,WUHU216HW,2013-02-09 06:53:00,
2013-02-08 23:55:00,47.0,19.9,29.41,SW,225,1.8,2.5,34,0.00,,,0.00,WUHU216HW,2013-02-09 06:55:00,
2013-02-08 23:57:00,47.0,19.9,29.41,SW,225,1.6,2.5,34,0.00,,,0.00,WUHU216HW,2013-02-09 06:57:00,
2013-02-08 23:58:00,47.0,19.9,29.41,WSW,248,0.7,1.8,34,0.00,,,0.00,WUHU216HW,2013-02-09 06:58:00,